[[{"header":{"parameterUnit":"m.s-1","parameterCategory":1,"la1":30.6,"la2":29.2853,"lo1":-89.7004,"lo2":-87.6739,"dy":0.0162,"dx":0.0183,"nx":112,"ny":82,"refTime":"2026-03-11T12:00:00:Z","depth":0,"parameterNumber":2,"parameterNumberName":"U-component_of_WINDS"},"data":[0.0,0.0,0.0,0.0,0.0,0.0,0.0,0.0,0.0,0.0,0.0,0.0,0.0,0.0,0.0,0.0,0.0,0.0,0.0,0.0,0.0,0.0,0.0,0.0,0.0,0.0,0.0,0.0,0.0,0.0,0.0,0.0,0.0,0.0,0.0,0.0,0.0,0.0,0.0,0.0,0.0,0.0,0.0,0.0,0.0,0.0,0.0,0.0,0.0,0.0,0.0,0.0,0.0,0.0,0.0,0.0,0.0,0.0,0.0,0.0,0.0,0.0,0.0,0.0,0.0,0.0,0.0,0.0,0.0,0.0,0.0,0.0,0.0,0.0,0.0,0.0,0.0,0.0,0.0,0.0,0.0,0.0,0.0,0.0,0.0,0.0,0.0,0.0,0.0,0.0,0.0,7.1706,7.7476,8.0446,7.8838,7.7592,7.4197,6.7885,0.0,0.0,0.0,0.0,0.0,0.0,0.0,0.0,0.0,0.0,0.0,0.0,0.0,0.0,0.0,0.0,0.0,0.0,0.0,0.0,0.0,0.0,0.0,0.0,0.0,0.0,0.0,0.0,0.0,0.0,0.0,0.0,0.0,0.0,0.0,0.0,0.0,0.0,0.0,0.0,0.0,0.0,0.0,0.0,0.0,0.0,0.0,0.0,0.0,0.0,0.0,0.0,0.0,0.0,0.0,0.0,0.0,0.0,0.0,0.0,0.0,0.0,0.0,0.0,0.0,0.0,0.0,0.0,0.0,0.0,0.0,0.0,0.0,0.0,0.0,0.0,0.0,0.0,0.0,0.0,0.0,0.0,0.0,0.0,0.0,0.0,0.0,0.0,0.0,0.0,0.0,0.0,0.0,0.0,0.0,0.0,0.0,0.0,0.0,0.0,0.0,0.0,0.0,0.0,6.8963,7.6532,7.96,8.0708,7.9715,7.6831,7.3447,6.9563,0.0,0.0,0.0,0.0,0.0,0.0,0.0,0.0,0.0,0.0,0.0,0.0,0.0,0.0,0.0,0.0,0.0,0.0,0.0,0.0,0.0,0.0,0.0,0.0,0.0,0.0,0.0,0.0,0.0,0.0,0.0,0.0,0.0,0.0,0.0,0.0,0.0,0.0,0.0,0.0,0.0,0.0,0.0,0.0,0.0,0.0,0.0,0.0,0.0,0.0,0.0,0.0,0.0,0.0,0.0,0.0,0.0,0.0,0.0,0.0,0.0,0.0,0.0,0.0,0.0,0.0,0.0,0.0,0.0,0.0,0.0,0.0,0.0,0.0,0.0,0.0,0.0,0.0,0.0,0.0,0.0,0.0,0.0,0.0,0.0,0.0,0.0,0.0,0.0,0.0,0.0,0.0,0.0,0.0,0.0,0.0,0.0,0.0,0.0,0.0,0.0,0.0,0.0,6.8175,7.1314,7.8454,8.0331,8.0746,7.9869,7.7531,7.4303,6.9986,6.6858,0.0,0.0,0.0,0.0,0.0,0.0,0.0,0.0,0.0,0.0,0.0,0.0,0.0,0.0,0.0,0.0,0.0,0.0,0.0,0.0,0.0,0.0,0.0,0.0,0.0,0.0,0.0,0.0,0.0,0.0,0.0,0.0,0.0,0.0,0.0,0.0,0.0,0.0,0.0,0.0,0.0,0.0,0.0,0.0,0.0,0.0,0.0,0.0,0.0,0.0,0.0,0.0,0.0,0.0,0.0,0.0,0.0,0.0,0.0,0.0,0.0,0.0,0.0,0.0,0.0,0.0,0.0,0.0,0.0,0.0,0.0,0.0,0.0,0.0,0.0,0.0,0.0,0.0,0.0,0.0,0.0,0.0,0.0,0.0,0.0,0.0,0.0,0.0,0.0,0.0,0.0,0.0,0.0,0.0,0.0,0.0,0.0,0.0,0.0,0.0,0.0,0.0,7.2092,7.4382,7.953,8.0708,8.0823,8.0138,7.7847,7.4589,7.0266,6.6038,0.0,0.0,0.0,0.0,0.0,0.0,0.0,0.0,0.0,0.0,0.0,0.0,0.0,0.0,0.0,0.0,0.0,0.0,0.0,0.0,0.0,0.0,0.0,0.0,0.0,0.0,0.0,0.0,0.0,0.0,0.0,0.0,0.0,0.0,0.0,0.0,0.0,0.0,0.0,0.0,0.0,0.0,0.0,0.0,0.0,0.0,0.0,0.0,0.0,0.0,0.0,0.0,0.0,0.0,0.0,0.0,0.0,0.0,0.0,0.0,0.0,0.0,0.0,0.0,0.0,0.0,0.0,0.0,0.0,0.0,0.0,0.0,0.0,0.0,0.0,0.0,0.0,0.0,0.0,0.0,0.0,0.0,0.0,0.0,0.0,0.0,0.0,0.0,0.0,0.0,0.0,0.0,0.0,0.0,0.0,0.0,0.0,0.0,0.0,0.0,0.0,0.0,7.3966,7.7923,8.0708,8.1054,8.1093,8.1016,7.6555,7.2924,7.095,6.4693,0.0,0.0,0.0,0.0,0.0,0.0,0.0,0.0,0.0,0.0,0.0,0.0,0.0,0.0,0.0,0.0,0.0,0.0,0.0,0.0,0.0,0.0,0.0,0.0,0.0,0.0,0.0,0.0,0.0,0.0,0.0,0.0,0.0,0.0,0.0,0.0,0.0,0.0,0.0,0.0,0.0,0.0,0.0,0.0,0.0,0.0,0.0,0.0,0.0,0.0,0.0,0.0,0.0,0.0,0.0,0.0,0.0,0.0,0.0,0.0,0.0,0.0,0.0,0.0,0.0,0.0,0.0,0.0,0.0,0.0,0.0,0.0,0.0,0.0,0.0,0.0,0.0,0.0,0.0,0.0,0.0,0.0,0.0,0.0,0.0,0.0,0.0,0.0,0.0,0.0,0.0,0.0,0.0,0.0,0.0,0.0,0.0,0.0,0.0,0.0,0.0,0.0,7.3206,7.7085,0.0,8.1093,8.1093,8.1093,7.7885,7.4235,7.0388,0.0,0.0,0.0,0.0,0.0,0.0,0.0,0.0,0.0,0.0,0.0,0.0,0.0,0.0,0.0,0.0,0.0,0.0,0.0,0.0,0.0,0.0,0.0,0.0,0.0,0.0,0.0,0.0,0.0,0.0,0.0,0.0,0.0,0.0,0.0,0.0,0.0,0.0,0.0,0.0,0.0,0.0,0.0,0.0,0.0,0.0,0.0,0.0,0.0,0.0,0.0,0.0,0.0,0.0,0.0,0.0,0.0,0.0,0.0,0.0,0.0,0.0,0.0,0.0,0.0,0.0,0.0,0.0,0.0,0.0,0.0,0.0,0.0,0.0,0.0,0.0,0.0,0.0,0.0,0.0,0.0,0.0,0.0,0.0,0.0,0.0,0.0,0.0,0.0,0.0,0.0,0.0,0.0,0.0,0.0,0.0,0.0,0.0,0.0,0.0,0.0,0.0,6.9155,7.3568,7.8154,0.0,8.3041,8.3349,8.499,8.1516,7.7006,7.1646,0.0,0.0,0.0,0.0,0.0,0.0,0.0,0.0,0.0,0.0,0.0,0.0,0.0,0.0,0.0,0.0,0.0,0.0,0.0,0.0,0.0,0.0,0.0,0.0,0.0,0.0,0.0,0.0,0.0,0.0,0.0,0.0,0.0,0.0,0.0,0.0,0.0,0.0,0.0,0.0,0.0,0.0,0.0,0.0,0.0,0.0,0.0,0.0,0.0,0.0,0.0,0.0,0.0,0.0,0.0,0.0,0.0,0.0,0.0,0.0,0.0,0.0,0.0,0.0,0.0,0.0,0.0,0.0,0.0,0.0,0.0,0.0,0.0,0.0,0.0,0.0,0.0,0.0,0.0,0.0,0.0,0.0,0.0,0.0,0.0,0.0,0.0,0.0,0.0,0.0,0.0,0.0,0.0,0.0,0.0,0.0,0.0,0.0,0.0,0.0,0.0,0.0,6.9491,7.5733,8.2201,8.8135,8.7218,8.8213,9.3276,8.7519,8.1069,0.0,0.0,0.0,0.0,0.0,0.0,0.0,0.0,0.0,0.0,0.0,0.0,0.0,0.0,0.0,0.0,0.0,0.0,0.0,0.0,0.0,0.0,0.0,0.0,0.0,0.0,0.0,0.0,0.0,0.0,0.0,0.0,0.0,0.0,0.0,0.0,0.0,0.0,0.0,0.0,0.0,0.0,0.0,0.0,0.0,0.0,0.0,0.0,0.0,0.0,0.0,0.0,0.0,0.0,0.0,0.0,0.0,0.0,0.0,0.0,0.0,0.0,0.0,0.0,0.0,0.0,0.0,0.0,0.0,0.0,0.0,0.0,0.0,0.0,0.0,0.0,0.0,0.0,0.0,0.0,0.0,0.0,0.0,0.0,0.0,0.0,0.0,0.0,0.0,0.0,0.0,0.0,0.0,0.0,0.0,0.0,0.0,0.0,0.0,0.0,0.0,0.0,0.0,0.0,8.3572,9.0744,9.3771,9.2521,9.2066,9.3561,8.8574,8.2064,7.4336,0.0,0.0,0.0,0.0,0.0,0.0,0.0,0.0,0.0,0.0,0.0,0.0,0.0,0.0,0.0,0.0,0.0,0.0,0.0,0.0,0.0,0.0,0.0,0.0,0.0,0.0,0.0,0.0,0.0,0.0,0.0,0.0,0.0,0.0,0.0,0.0,0.0,0.0,0.0,0.0,0.0,0.0,0.0,0.0,0.0,0.0,0.0,0.0,0.0,0.0,0.0,0.0,0.0,0.0,0.0,0.0,0.0,0.0,0.0,0.0,0.0,0.0,0.0,0.0,0.0,0.0,0.0,0.0,0.0,0.0,0.0,0.0,0.0,0.0,0.0,0.0,0.0,0.0,0.0,0.0,0.0,0.0,0.0,0.0,0.0,0.0,0.0,0.0,0.0,0.0,0.0,0.0,0.0,0.0,0.0,0.0,0.0,0.0,0.0,0.0,0.0,0.0,7.6748,8.6614,9.4785,9.8859,9.7786,9.7277,9.8634,9.41,8.7121,7.7635,0.0,0.0,0.0,0.0,0.0,0.0,0.0,0.0,0.0,0.0,0.0,0.0,0.0,0.0,0.0,0.0,0.0,0.0,0.0,0.0,0.0,0.0,0.0,0.0,0.0,0.0,0.0,0.0,0.0,0.0,0.0,0.0,0.0,0.0,0.0,0.0,0.0,0.0,0.0,0.0,0.0,0.0,0.0,0.0,0.0,0.0,0.0,0.0,0.0,0.0,0.0,0.0,0.0,0.0,0.0,0.0,0.0,0.0,0.0,0.0,0.0,0.0,0.0,0.0,0.0,0.0,0.0,0.0,0.0,0.0,0.0,0.0,0.0,0.0,0.0,0.0,0.0,0.0,0.0,0.0,0.0,0.0,0.0,0.0,0.0,0.0,0.0,0.0,0.0,0.0,0.0,0.0,0.0,0.0,0.0,0.0,0.0,0.0,0.0,0.0,0.0,0.0,7.7493,8.7451,9.6729,10.3809,10.2999,10.3084,10.6101,10.1712,9.4177,8.3323,0.0,0.0,0.0,0.0,0.0,0.0,0.0,0.0,0.0,0.0,0.0,0.0,0.0,0.0,0.0,0.0,0.0,0.0,0.0,0.0,0.0,0.0,0.0,0.0,0.0,0.0,0.0,0.0,0.0,0.0,0.0,0.0,0.0,0.0,0.0,0.0,0.0,0.0,0.0,0.0,0.0,0.0,0.0,0.0,0.0,0.0,0.0,0.0,0.0,0.0,0.0,0.0,0.0,0.0,0.0,0.0,0.0,0.0,0.0,0.0,7.9726,0.0,0.0,0.0,0.0,0.0,0.0,0.0,0.0,0.0,0.0,0.0,0.0,0.0,0.0,0.0,0.0,0.0,0.0,0.0,0.0,0.0,0.0,0.0,0.0,0.0,0.0,0.0,0.0,0.0,0.0,0.0,0.0,0.0,0.0,0.0,0.0,0.0,0.0,0.0,0.0,0.0,8.356,9.6629,10.6583,10.959,10.7779,10.6434,10.6399,10.171,9.4945,8.5884,0.0,0.0,0.0,0.0,0.0,0.0,0.0,0.0,0.0,0.0,0.0,0.0,0.0,0.0,0.0,0.0,0.0,0.0,0.0,0.0,0.0,0.0,0.0,0.0,0.0,0.0,0.0,0.0,0.0,0.0,0.0,0.0,0.0,0.0,0.0,0.0,0.0,0.0,0.0,0.0,0.0,0.0,0.0,0.0,0.0,0.0,0.0,0.0,0.0,0.0,0.0,0.0,0.0,0.0,0.0,0.0,0.0,0.0,0.0,0.0,0.0,8.1289,0.0,0.0,0.0,0.0,0.0,0.0,0.0,0.0,0.0,0.0,0.0,0.0,0.0,0.0,0.0,0.0,0.0,0.0,0.0,0.0,0.0,0.0,0.0,0.0,0.0,0.0,0.0,0.0,0.0,0.0,0.0,0.0,0.0,0.0,0.0,0.0,0.0,0.0,0.0,0.0,8.5398,9.8741,10.8705,11.1214,11.0286,10.8705,10.6591,10.3211,9.7789,8.9683,8.2029,0.0,0.0,0.0,0.0,0.0,0.0,0.0,0.0,0.0,0.0,0.0,0.0,0.0,0.0,0.0,0.0,0.0,0.0,0.0,0.0,0.0,0.0,0.0,0.0,0.0,0.0,0.0,0.0,0.0,0.0,0.0,0.0,0.0,0.0,0.0,0.0,0.0,0.0,0.0,0.0,0.0,0.0,0.0,0.0,0.0,0.0,0.0,0.0,0.0,0.0,0.0,0.0,0.0,0.0,0.0,10.039,10.4687,10.5195,10.2304,9.7656,9.1562,8.4883,0.0,0.0,0.0,0.0,0.0,0.0,0.0,0.0,0.0,0.0,0.0,0.0,0.0,0.0,0.0,0.0,0.0,0.0,0.0,0.0,0.0,0.0,0.0,0.0,0.0,8.5727,8.5286,0.0,0.0,0.0,0.0,0.0,0.0,0.0,0.0,0.0,0.0,0.0,0.0,8.6162,9.8466,10.7779,11.0863,11.1329,11.0021,10.6672,10.4906,10.0789,9.3639,8.5731,7.8807,0.0,0.0,0.0,0.0,0.0,0.0,0.0,0.0,0.0,0.0,0.0,0.0,0.0,0.0,0.0,0.0,0.0,0.0,0.0,0.0,0.0,0.0,0.0,0.0,0.0,0.0,0.0,0.0,0.0,0.0,0.0,0.0,8.1836,7.6055,0.0,0.0,0.0,0.0,0.0,0.0,0.0,0.0,0.0,0.0,0.0,0.0,0.0,0.0,9.5781,10.4101,10.75,10.6211,11.3789,11.6718,11.539,11.6093,11.6601,11.6914,11.7617,0.0,9.5703,9.625,0.0,0.0,0.0,0.0,0.0,0.0,0.0,0.0,0.0,0.0,0.0,0.0,0.0,0.0,0.0,0.0,0.0,0.0,0.0,0.0,0.0,0.0,9.3717,9.3293,9.4098,9.4138,0.0,8.0882,7.1222,6.7863,0.0,0.0,0.0,0.0,0.0,0.0,0.0,0.0,8.9496,10.0506,10.8321,11.0209,11.0402,10.9282,10.6626,10.4905,10.1597,9.6136,9.0569,8.5493,8.1003,7.3559,0.0,0.0,0.0,0.0,0.0,0.0,0.0,0.0,0.0,0.0,0.0,0.0,0.0,0.0,0.0,0.0,0.0,0.0,0.0,0.0,0.0,0.0,0.0,0.0,0.0,0.0,0.0,0.0,0.0,8.0976,8.5078,7.6211,8.2187,8.2851,0.0,0.0,0.0,0.0,0.0,0.0,0.0,0.0,0.0,10.1094,10.3398,10.6914,11.1601,11.6289,11.8711,11.8906,12.3203,12.5117,12.4804,12.4297,12.4297,12.4609,12.4414,12.0,11.25,10.6484,9.914,9.1133,0.0,0.0,0.0,0.0,0.0,0.0,8.8008,0.0,0.0,0.0,0.0,0.0,0.0,0.0,0.0,0.0,0.0,0.0,0.0,0.0,0.0,9.9744,9.9862,9.9056,9.8749,9.1874,8.3865,0.0,7.4158,6.9976,6.2281,0.0,0.0,0.0,0.0,0.0,9.1836,10.1014,10.7633,10.9282,10.9474,10.8398,10.593,10.502,10.2597,9.7981,9.3793,8.9796,8.6049,7.9467,7.3261,0.0,0.0,0.0,0.0,0.0,0.0,0.0,0.0,0.0,0.0,0.0,0.0,0.0,0.0,0.0,0.0,0.0,0.0,0.0,0.0,0.0,0.0,0.0,0.0,0.0,0.0,0.0,0.0,8.4297,0.0,7.8828,8.6719,8.8281,0.0,0.0,0.0,0.0,0.0,0.0,9.5469,10.0586,10.6093,11.2109,11.5,11.9297,12.5117,12.6015,12.7109,12.8281,12.8984,12.9492,12.9883,12.9218,12.8711,12.8203,12.7383,12.6015,12.3711,11.4218,10.6211,9.9414,9.5508,9.3828,0.0,9.3867,9.3672,9.414,9.9922,10.1094,9.9765,9.8437,0.0,9.0112,8.2883,0.0,0.0,0.0,0.0,8.0528,8.8994,0.0,9.6865,10.2978,10.3211,10.2094,10.2517,9.9283,9.4023,0.0,8.2855,7.8177,6.8876,0.0,0.0,0.0,0.0,8.9486,9.4369,10.1325,10.6287,10.7783,10.809,10.7322,10.5008,10.4789,10.3175,9.9365,9.6328,9.3445,9.0754,8.5312,7.9685,7.3942,0.0,0.0,0.0,0.0,0.0,0.0,0.0,0.0,0.0,0.0,0.0,0.0,0.0,0.0,0.0,0.0,0.0,0.0,0.0,0.0,0.0,0.0,0.0,0.0,0.0,0.0,0.0,0.0,0.0,8.6953,9.6875,0.0,0.0,0.0,0.0,9.0156,9.8554,10.4492,10.6992,11.6718,12.2695,12.3906,12.7187,12.9218,12.9609,13.039,13.0898,13.1015,13.1015,13.0703,12.9883,12.9883,12.8906,12.75,12.8984,12.7383,12.3203,11.8515,11.6289,11.5312,11.0195,10.7812,10.6797,10.5312,10.3711,10.2617,10.539,10.4804,10.3515,10.8203,10.3515,9.5351,9.2499,8.771,0.0,0.0,8.5511,8.9983,9.3787,9.7248,10.0288,10.2327,10.3321,10.3626,10.2828,9.9288,9.5443,0.0,8.9915,8.6722,8.2058,0.0,0.0,8.3503,8.6611,9.1029,9.7673,10.1786,10.44,10.521,10.5979,10.5787,10.4093,10.3982,10.279,10.0211,9.8327,9.6865,9.598,9.1713,8.6956,8.1831,7.6024,0.0,0.0,0.0,0.0,0.0,0.0,0.0,0.0,0.0,0.0,0.0,0.0,0.0,0.0,0.0,0.0,0.0,0.0,0.0,0.0,0.0,0.0,0.0,0.0,0.0,0.0,0.0,0.0,9.1445,10.5195,0.0,0.0,9.8828,10.1211,10.2812,11.1406,11.75,11.9492,12.5195,12.8281,12.8086,13.039,13.1601,13.1601,13.1289,13.1484,13.1992,13.1484,13.1015,13.0703,12.9609,12.8086,12.6484,12.6601,12.5117,12.25,12.1015,11.9687,11.8398,11.6015,11.4883,11.4609,11.4609,11.4218,11.3593,11.3398,11.2383,11.0703,10.8203,10.4609,10.0418,9.5455,9.2076,8.9926,8.996,9.1521,9.398,9.7403,9.9981,10.202,10.3213,10.2788,10.2401,10.329,10.1404,9.925,9.8359,9.4366,8.9802,8.5472,8.7429,8.8868,8.6841,9.0991,9.5829,9.9904,10.202,10.3405,10.4214,10.4599,10.4329,10.3212,10.3098,10.1981,9.9403,9.8712,9.7481,9.552,9.3482,8.995,8.4851,8.1074,7.3774,0.0,0.0,0.0,0.0,0.0,0.0,0.0,0.0,0.0,0.0,0.0,0.0,0.0,0.0,0.0,0.0,0.0,0.0,0.0,0.0,0.0,0.0,0.0,0.0,0.0,0.0,10.6484,9.9883,11.2812,11.8281,10.8203,11.0898,11.3711,11.4804,12.1289,12.5781,12.7187,13.0312,13.1718,13.0781,13.2187,13.2812,13.25,13.1601,13.1484,13.2109,13.1484,13.1015,13.0703,12.9609,12.8086,12.6406,12.6211,12.4883,12.3086,12.3398,12.25,12.0898,12.0312,11.9687,11.9297,12.0508,12.0508,11.9687,11.7695,11.6289,11.4492,10.9297,10.6719,10.4584,9.9745,9.7727,9.6947,9.6325,9.6866,9.8019,9.9981,10.1481,10.2712,10.329,10.2828,10.2404,10.329,10.2597,10.1712,10.1404,9.7904,9.4062,9.0915,9.3674,9.4711,9.0224,9.4561,9.8673,9.948,10.1096,10.2405,10.2982,10.2982,10.279,10.2213,10.0596,9.9365,9.8827,9.6405,9.4715,9.4176,9.1681,8.8535,8.489,8.0064,7.2916,6.3295,0.0,0.0,0.0,0.0,0.0,0.0,0.0,0.0,0.0,0.0,0.0,0.0,0.0,0.0,0.0,0.0,0.0,0.0,0.0,0.0,0.0,0.0,0.0,9.2969,10.6211,11.5,11.25,11.9883,12.4804,12.3906,12.0781,12.0898,12.5781,12.7812,12.9218,13.0,13.2383,13.3398,13.25,13.3281,13.3281,13.25,13.1601,13.1211,13.1211,13.1093,13.0703,12.9883,12.9883,12.8906,12.7304,12.8203,12.7109,12.4804,12.5586,12.5,12.3515,12.3515,12.25,12.1093,12.2812,12.2304,12.039,11.789,11.5898,11.4218,11.25,11.0195,10.7791,10.5806,10.4985,10.4137,10.1288,10.152,10.2404,10.1597,10.202,10.2597,10.2597,10.3289,10.3713,10.279,10.2597,10.2328,10.1481,10.0673,9.9865,9.898,9.8865,9.775,9.4408,9.7443,0.0,9.6751,9.9288,10.1289,10.1212,10.1096,10.1096,10.1096,9.6558,9.5137,9.8442,9.1682,8.9034,9.2332,8.6851,8.329,8.2364,7.328,6.6912,6.3516,0.0,0.0,0.0,0.0,0.0,0.0,0.0,0.0,0.0,0.0,0.0,0.0,0.0,0.0,0.0,0.0,0.0,0.0,0.0,0.0,0.0,0.0,10.0586,9.8476,10.9883,11.8789,11.9297,12.75,13.2304,13.0195,13.0312,13.0508,13.0703,13.2304,13.3281,13.3593,13.3711,13.3398,13.25,13.2109,13.1797,13.1601,13.0703,13.0312,13.0195,12.9609,12.9218,12.8984,12.8984,12.8008,12.6406,12.7304,12.6211,12.3906,12.4101,12.3906,12.3515,12.3515,12.2812,12.1914,12.2383,12.0703,11.8008,11.7187,11.5508,11.3398,11.2304,11.1406,11.0303,10.75,10.6208,10.51,10.2674,10.1827,10.1712,10.2097,10.2404,10.2789,10.3405,10.3712,10.3674,10.2789,10.2597,10.2328,10.1481,10.1096,10.0673,9.9904,10.0212,10.0096,9.8596,0.0,0.0,10.0019,10.0673,10.0404,9.7942,9.7673,9.7673,9.7673,9.5252,9.4366,9.5958,9.2926,9.1245,9.1534,8.8232,8.5375,8.3277,7.5902,7.1004,0.0,0.0,0.0,0.0,0.0,0.0,0.0,0.0,0.0,0.0,0.0,0.0,0.0,0.0,0.0,0.0,0.0,0.0,0.0,0.0,0.0,0.0,10.4492,11.2304,11.2187,11.8906,12.4414,12.5781,13.2109,13.5703,13.4218,13.5,13.5,13.3593,13.4101,13.4297,13.3984,13.3203,13.25,13.1992,13.1093,13.0703,13.0703,12.9804,12.9414,12.9297,12.8789,12.8593,12.8593,12.8593,12.8008,0.0,12.6484,12.539,12.3984,12.289,12.2383,0.0,0.0,0.0,0.0,0.0,11.9414,11.6914,11.6601,11.5312,11.3515,11.2304,11.1406,11.0388,10.8089,10.66,10.5293,10.3713,10.2904,10.2597,10.2981,10.3405,10.3789,10.4289,10.4713,10.4713,10.3789,10.3405,10.2905,10.1981,0.0,0.0,10.0673,10.1019,10.0673,9.8788,10.0092,10.0781,0.0,10.0404,10.0596,9.8596,9.8401,9.8359,9.8359,9.5213,0.0,0.0,0.0,8.8469,8.6511,8.435,0.0,0.0,0.0,0.0,0.0,0.0,0.0,0.0,6.7834,6.6977,0.0,0.0,0.0,0.0,0.0,0.0,0.0,0.0,0.0,0.0,0.0,0.0,0.0,0.0,0.0,0.0,11.5,12.4492,12.8086,12.9492,13.0586,13.1484,13.4414,13.6289,13.6211,13.6211,13.5781,13.4804,13.4101,13.3281,0.0,0.0,0.0,0.0,0.0,12.9804,12.9804,12.8984,12.8593,12.8593,12.8593,12.8593,12.8593,12.8593,12.8593,12.8515,12.6015,12.4883,12.4609,12.1992,12.0781,12.0586,12.0703,12.1211,12.1718,12.0117,11.8398,0.0,0.0,0.0,0.0,11.25,11.0898,10.9297,10.8008,10.6614,10.5206,10.4484,10.4292,10.4329,10.4212,10.4597,10.5097,10.529,10.5905,10.6213,10.529,10.4482,10.3597,10.279,10.1904,10.1289,10.1289,10.1289,10.0288,9.7327,9.9403,0.0,9.725,9.9442,10.1212,10.0904,0.0,0.0,10.0898,9.5901,9.3755,9.6012,8.9503,8.417,8.0911,7.955,7.7693,7.5142,7.505,7.6139,7.8276,7.8391,8.0046,8.2894,7.2659,7.1171,0.0,0.0,0.0,0.0,0.0,0.0,0.0,0.0,0.0,0.0,0.0,0.0,0.0,0.0,0.0,10.5195,11.4804,12.3086,12.789,13.0586,13.2617,13.4101,13.5508,13.6015,13.5312,13.5312,13.4609,13.3086,13.2812,13.2383,13.1484,13.0586,0.0,13.0195,12.9297,12.8906,12.8906,12.8711,12.8593,12.8593,0.0,0.0,12.8593,12.8593,12.8593,12.8515,12.6601,12.539,12.4609,12.1992,12.0117,11.8906,11.9609,12.0,12.0,11.8906,11.789,11.6914,11.6093,11.5195,11.4218,11.25,11.1718,11.0898,10.8398,10.7409,0.0,10.4803,10.4314,10.452,10.5597,10.5482,10.5482,10.6905,10.679,10.6213,10.529,10.452,10.3597,10.2828,10.1904,10.1289,10.1289,10.1289,10.1096,10.0404,10.0904,10.1096,10.0404,10.0904,10.048,9.8481,9.8212,9.8249,9.8249,9.5944,9.4753,9.5249,9.1941,8.9051,8.7038,8.7981,8.7326,8.4766,8.4703,8.4593,8.4401,8.5087,8.6467,8.8309,8.2731,8.1239,0.0,0.0,0.0,0.0,0.0,0.0,0.0,0.0,0.0,0.0,0.0,8.6484,0.0,0.0,10.5195,11.1992,11.9687,12.5781,12.8789,13.039,13.1797,13.3515,13.4883,13.5312,13.4492,13.3984,13.3398,13.2617,13.1718,13.1015,13.0586,12.9687,12.9218,12.9218,12.8789,12.8593,12.8593,12.8593,12.8593,12.8593,12.8593,12.8593,12.8593,12.8593,12.8593,12.8515,12.6797,12.5781,12.5195,12.2109,11.9883,11.8281,11.8789,11.8906,11.8906,11.8515,11.8008,11.75,11.6718,11.5586,11.4218,11.25,11.1289,11.0195,10.8398,10.7812,10.7491,10.6079,10.5789,10.5905,10.629,10.6097,10.5982,10.679,10.6713,10.629,10.579,10.5097,10.4289,10.3406,10.2481,10.1789,10.1404,10.1289,10.1289,10.1289,10.1289,10.1289,10.1289,10.1289,10.1019,10.0096,10.0095,10.0209,10.067,9.8749,9.7174,9.6326,9.3866,9.1902,9.0629,9.0586,8.9936,8.8671,8.864,8.8679,8.8679,8.9102,9.0175,9.1748,8.9643,8.8454,0.0,0.0,0.0,0.0,0.0,0.0,0.0,0.0,8.5664,8.7734,8.9648,9.3437,10.1601,10.6211,11.1289,11.8906,12.4609,12.8515,12.9492,13.0117,13.0898,13.2109,13.3398,13.4101,13.3593,13.289,13.2383,13.1992,13.0703,12.9804,12.9687,12.8984,12.8593,12.8593,12.8593,12.8593,12.8593,12.8593,12.8593,12.8593,12.8593,12.8593,12.8593,12.8593,12.8593,12.8515,12.6797,12.5781,12.5312,12.25,12.0586,11.9297,11.8906,11.8789,11.8789,11.8398,11.8281,11.8203,11.7304,11.6093,11.4609,11.2617,11.0898,10.9609,10.8398,10.8008,10.7881,10.7394,10.7192,10.7098,10.6713,10.6521,10.6405,10.6597,10.6521,10.6405,10.6405,10.5713,10.4905,10.4289,10.3406,10.2597,10.1904,10.1789,10.1712,10.1404,10.1289,10.1289,10.1289,10.1404,10.1904,10.279,10.3018,10.3401,10.4093,10.1826,9.975,9.8364,9.602,9.4406,9.3754,9.2372,9.1642,9.1642,9.1642,9.1949,9.2678,9.2678,9.337,9.4712,9.4521,9.3714,6.9921,6.8835,7.2308,7.6345,7.9414,8.3359,0.0,0.0,9.582,9.9062,10.4101,10.8906,11.2304,11.4492,11.7187,12.1211,12.4414,12.6914,12.8515,13.0703,13.1992,13.1406,13.1484,13.1914,13.2617,13.2617,13.1914,13.0312,13.0,12.9609,12.8789,12.8711,12.8593,12.8593,12.8593,12.8593,12.8593,12.8593,12.8593,12.8593,12.8593,12.8593,12.8593,12.8593,12.8593,12.8515,12.6797,12.5195,12.3789,12.3398,12.3086,12.2812,12.1211,12.0586,12.039,11.8906,11.8281,11.8203,11.7304,11.6914,11.6211,11.3008,11.1797,11.1211,10.8711,10.8008,10.7881,10.7394,10.7192,10.729,10.7482,10.7021,10.6597,10.7405,10.7021,10.6405,10.6405,10.5713,10.5097,10.4982,10.4289,10.3674,10.3597,10.3598,10.3098,10.1481,10.1289,10.1289,10.1289,10.1981,10.279,10.3714,10.4405,10.4903,10.5018,10.2595,10.1096,10.0904,9.9212,9.8212,9.8096,9.7904,9.7787,9.7787,9.7787,9.7825,9.7941,9.7941,9.8056,9.821,9.7441,9.6977,7.5028,7.4525,0.0,0.0,9.0016,9.4883,10.0195,10.3515,10.6015,10.8008,11.039,11.3086,11.6093,11.7695,11.9297,0.0,12.5586,12.8281,12.8593,12.9492,13.0508,13.1093,12.9414,12.9101,13.1484,13.1289,13.0703,13.0,12.9414,12.8984,12.8593,12.8593,12.8593,12.8593,12.8593,12.8593,12.8593,12.8593,12.8593,12.8593,12.8593,12.8593,12.8593,12.8593,12.8593,12.8515,12.7304,12.5508,12.3515,12.3984,12.3398,12.1992,12.2304,12.1797,12.0703,11.8906,11.8281,11.8203,11.789,11.7109,11.6093,11.4609,11.2812,11.0898,10.9804,10.8703,10.7697,10.7303,10.7781,10.8406,10.8406,10.8906,10.9213,10.8598,10.8906,10.879,10.679,10.6905,10.6905,10.5405,10.4789,10.4405,10.402,10.3905,10.3674,10.2903,10.2789,10.279,10.279,10.3098,10.3713,10.4482,10.5405,10.5672,10.5095,10.3711,10.2595,10.2097,10.0904,10.0019,9.9557,9.9596,9.9327,9.8827,9.8827,9.8827,9.8827,9.8827,9.8827,9.8788,9.8404,9.8519,7.7352,0.0,0.0,9.2852,9.9644,10.5312,10.8789,11.1093,11.289,11.3711,11.4101,11.5195,11.8086,11.9414,0.0,12.2304,12.6289,12.8789,12.7695,12.8203,12.8789,12.9414,12.7187,12.6718,12.9218,12.9492,12.9492,12.9492,12.8984,12.8593,12.8593,12.8593,12.8593,12.8593,12.8593,12.8593,12.8593,12.8593,12.8593,12.8593,12.8593,12.8593,12.8593,12.8593,12.8593,12.8593,12.789,12.6601,12.5,12.5586,12.4687,12.3086,12.3906,12.3086,12.1406,11.9687,11.8711,11.8281,11.8281,11.75,11.6406,11.5703,11.3906,11.1914,11.1211,10.9914,10.8684,10.8608,10.9093,10.9713,10.9598,11.0598,11.1214,10.9906,11.0598,11.0714,10.7713,10.8021,10.8213,10.5905,10.5482,10.529,10.4672,10.4597,10.4597,10.4595,10.4597,10.4406,10.4021,10.4098,10.4482,10.5403,10.602,10.6097,10.548,10.471,10.398,10.329,10.252,10.1789,10.1212,10.0904,10.048,9.9865,9.9634,9.948,9.948,9.948,9.948,9.948,9.948,9.9827,0.0,0.0,9.5719,9.9989,10.6389,11.25,11.5898,11.5508,11.4609,11.5508,11.6289,11.7383,11.9218,12.0312,12.1406,12.3203,12.5703,12.6797,12.5117,12.6992,12.7695,12.5312,12.4883,12.4883,0.0,12.7187,12.8593,12.8593,12.8593,12.8593,12.8593,12.8593,12.8593,12.8593,12.8593,12.8593,12.8593,12.8593,12.8593,12.8593,12.8593,12.8593,12.8593,12.8593,12.8593,12.8593,12.8593,12.8515,12.8398,12.8515,12.8398,12.8203,12.6601,12.4883,12.3203,12.1484,11.9804,11.8281,11.8281,11.8281,11.7812,11.5312,11.5,11.5117,11.2617,11.1607,11.1483,11.1987,11.1368,11.0671,11.1329,11.1522,11.1522,11.1406,11.1522,11.1021,10.9213,10.8906,10.8406,10.6713,10.6405,10.6405,10.629,10.629,10.629,10.6328,10.629,10.5672,10.4093,10.4634,10.5403,10.6328,10.6405,10.6405,10.6405,10.5595,10.5097,10.4985,10.4292,10.383,10.383,10.2982,10.252,10.252,10.1712,10.1212,10.1212,10.1212,10.1212,10.1212,10.1212,10.1212,0.0,0.0,10.1482,10.7691,11.2682,11.6289,11.6914,11.6992,11.7109,11.7383,11.3984,11.1601,11.3281,11.3906,11.4609,11.6406,12.2617,12.6914,12.5781,12.7304,12.7695,12.5117,12.3789,0.0,0.0,0.0,0.0,12.7695,12.7695,12.8008,12.8593,12.8593,12.8593,12.8593,12.9218,12.9218,12.8593,12.9218,12.9218,12.8593,12.8008,12.8008,12.8593,12.8008,12.8086,12.8593,12.8008,12.7383,12.6914,12.75,12.7383,12.6914,12.75,12.6015,12.3398,12.2812,12.0781,11.8281,11.8281,11.8281,11.8203,11.7304,11.6406,11.539,11.3984,11.3001,11.2211,11.1616,11.2286,11.3099,11.3214,11.3984,11.4484,11.3407,11.3984,11.3907,11.0483,11.0214,11.0021,10.7713,10.679,10.6405,10.6405,10.6405,10.6405,10.6405,10.6405,10.6213,10.5595,10.5787,10.6097,10.6405,10.6405,10.6405,10.6405,10.5595,10.5095,10.5097,10.4328,10.3903,10.3903,10.3595,10.352,10.3483,10.3175,10.2713,10.2213,10.2213,10.1904,10.1289,10.1289,10.1289,9.5589,10.2117,10.7812,11.3086,11.6797,11.8984,11.8086,11.8398,11.8515,11.7617,11.2383,10.8203,10.9101,10.7383,10.75,11.1992,11.8398,12.3281,12.4883,12.6289,12.6406,12.4101,12.2304,0.0,0.0,0.0,0.0,12.7109,12.7304,12.7695,12.8593,12.8593,12.8906,12.9492,12.9492,12.9609,13.0,12.9609,12.9218,12.8593,12.7695,12.7812,12.8593,12.8008,12.8086,12.8593,12.8008,12.7383,12.6992,12.75,12.7383,12.6992,12.75,12.6211,12.3906,12.289,12.1015,11.8711,11.8398,11.8281,11.8203,11.7617,11.6992,11.6406,11.5312,11.4609,11.4001,11.3504,11.4007,11.4912,11.4907,11.5676,11.6176,11.4791,11.5291,11.5099,11.1406,11.1098,11.0714,10.8213,10.7213,10.679,10.6521,10.6905,10.7482,10.8098,10.8216,10.7793,10.6597,10.6405,10.6405,10.6405,10.6405,10.6405,10.6405,10.5864,10.5595,10.5595,10.5095,10.4826,10.4826,10.4477,10.4287,10.4329,10.4021,10.3597,10.3097,10.3098,10.279,10.2213,10.2213,10.2213,9.851,10.6508,11.48,11.6601,11.9101,12.0781,11.9883,11.9609,11.8789,11.6093,11.1093,10.7109,0.0,0.0,10.0586,11.0,11.3515,11.6992,12.2812,12.4414,12.4297,0.0,0.0,0.0,0.0,0.0,0.0,12.6992,0.0,12.7617,12.8593,12.8593,12.9414,13.1015,12.9492,12.9804,13.2304,12.9804,12.8593,12.8593,12.7695,12.7812,12.8593,12.8593,12.8593,12.8593,12.8593,12.8593,12.8593,12.8593,12.8593,12.8398,12.6718,12.5508,12.4492,12.1992,12.0508,11.9492,11.8711,11.8398,11.8008,11.6289,11.6914,11.8008,11.6289,11.6211,11.6787,11.7195,11.6605,11.5913,11.6369,11.6484,11.6292,11.5484,11.5291,11.4599,11.2099,11.1522,11.0791,10.829,10.779,10.7521,10.6713,10.7905,10.9483,11.1218,11.1491,11.0297,10.7098,10.6713,10.6713,10.6713,10.6713,10.6597,10.6521,10.6521,10.6521,10.6405,10.6405,10.6405,10.6405,10.5595,10.521,10.521,10.44,10.4016,10.4016,10.3982,10.3907,10.3907,10.3907,10.3907,10.8508,11.4894,11.9897,12.1885,12.3086,12.3203,12.1093,11.9609,11.7695,11.4492,10.5117,9.8008,0.0,0.0,0.0,10.5898,11.5586,0.0,12.5117,12.6718,0.0,0.0,0.0,12.289,12.3984,12.3008,0.0,0.0,12.6718,12.6992,12.8515,12.8593,12.8789,12.9218,12.9492,12.9609,12.9609,12.8906,12.8593,12.8593,12.7695,12.7812,12.8593,12.789,12.8008,12.8593,12.8593,12.8593,12.8593,12.8593,12.8593,12.8515,12.7383,12.6093,12.4609,12.3281,12.1914,12.0508,12.0312,11.9414,11.8086,11.6992,11.7383,11.8008,11.6211,11.6718,11.7685,11.6689,11.6721,11.6913,11.6599,11.6484,11.6292,11.5484,11.5291,11.4791,11.2791,11.1906,11.1098,10.979,10.8983,10.8713,10.9213,10.9598,11.0214,11.1291,11.1483,11.1218,11.0297,11.0223,11.0223,11.0223,11.0223,10.9681,10.837,10.8293,10.7716,10.6521,10.6405,10.6405,10.6405,10.6213,10.6097,10.6097,10.5864,10.5403,10.4826,10.4787,10.448,10.3903,10.3903,10.3903,11.4318,11.9177,12.2811,12.3488,12.3704,12.2304,11.6992,11.4804,11.1914,10.5508,9.6289,0.0,0.0,0.0,0.0,0.0,0.0,0.0,12.6015,12.8086,12.8515,0.0,12.539,0.0,12.5312,12.4414,12.4804,0.0,0.0,12.6406,12.8515,12.8593,12.8984,12.9687,12.9492,12.9297,12.9218,12.9218,12.9218,12.9218,12.789,12.7812,12.8593,12.8086,12.8086,12.8593,0.0,12.8593,12.8593,12.8593,12.8398,12.789,12.7109,12.5898,12.4609,12.3398,12.2304,12.1406,12.1015,12.0312,11.9218,11.8008,11.789,11.8008,11.6718,11.7187,11.8083,11.7214,11.7112,11.7298,11.6792,11.6599,11.6176,11.4984,11.4714,11.4291,11.2522,11.1791,11.1214,11.0406,10.979,10.9906,11.1098,11.1598,11.2291,11.3483,11.3714,11.3714,11.3724,11.2411,11.1483,11.1483,11.1483,11.1098,11.0094,10.9986,10.9604,10.8719,10.7908,10.7523,10.7523,10.679,10.6405,10.6405,10.6405,10.6213,10.5672,10.5672,10.5403,10.5018,10.5018,10.5018,11.7907,12.1292,12.4318,12.3825,12.3091,12.0312,11.1601,10.8593,10.4687,9.4258,0.0,8.414,8.8125,8.6367,8.9336,10.4883,0.0,11.8203,12.6484,12.8906,12.9414,12.8086,12.6992,12.6406,12.6484,12.6211,12.6406,12.7383,12.6093,12.6289,12.8515,12.8593,12.9414,13.1093,13.0,12.9687,13.039,13.0312,13.0195,13.0117,12.8398,12.8086,12.8906,12.8906,12.8906,12.8906,0.0,0.0,12.8593,12.8593,12.8086,12.7187,12.6289,12.5586,12.4687,12.3008,12.2383,12.2383,12.1484,12.1211,12.0781,11.8906,11.8398,11.8281,11.7304,11.7617,11.8203,11.8008,11.7683,11.7318,11.7067,11.6676,11.5907,11.4407,11.3907,11.3407,11.1791,11.1522,11.1291,11.0714,11.0483,11.1098,11.2791,11.3714,11.4714,11.6292,11.6484,11.6484,11.6484,11.3972,11.2197,11.2197,11.2197,11.2082,11.189,11.1791,11.1725,11.1532,11.0105,10.9101,10.8911,10.7716,10.6905,10.6405,10.6597,10.6597,10.6405,10.6405,10.6405,10.6405,10.6405,10.6405,12.1883,12.4004,12.572,12.689,12.5808,12.2109,11.3398,10.8593,0.0,0.0,0.0,8.1523,8.8476,8.8711,0.0,10.8515,0.0,0.0,0.0,0.0,13.0312,0.0,0.0,0.0,0.0,0.0,0.0,0.0,0.0,0.0,12.8593,12.8593,12.9414,13.1093,13.2304,13.3008,13.3086,13.2383,13.1718,13.1015,12.9883,12.9883,13.0703,13.0703,13.0703,13.0703,0.0,0.0,12.8593,12.8593,12.8086,12.7187,12.6289,12.5898,12.5586,12.3906,12.3711,12.4218,12.3398,12.2617,12.1601,11.9101,11.8789,11.9101,11.75,11.7617,11.8203,11.8008,11.7703,11.7288,11.709,11.6292,11.5291,11.4214,11.3407,11.2714,11.1714,11.1522,11.1714,11.2214,11.2291,11.2791,11.4599,11.4984,11.5407,11.6407,11.6484,11.6484,11.6484,11.6022,11.5638,11.5638,11.5638,11.5093,11.3703,11.3593,11.3017,11.1588,11.1204,11.0402,10.9027,10.9989,10.9296,10.6521,10.7793,10.7793,10.6405,10.6405,10.6405,10.6405,10.6405,10.6405,12.4289,12.6008,12.7379,12.8191,12.6219,12.0781,10.8086,0.0,0.0,0.0,7.543,7.4961,8.0898,0.0,0.0,0.0,0.0,0.0,0.0,0.0,0.0,0.0,0.0,0.0,0.0,0.0,0.0,0.0,0.0,0.0,13.0,13.0781,13.1718,13.25,13.3398,13.3789,13.3789,13.3398,13.2695,13.1914,13.1015,13.1015,13.1797,13.0508,13.0312,13.1093,0.0,0.0,12.8593,12.8593,12.8086,12.7304,12.6797,12.6093,12.5312,12.4492,12.4218,12.4101,12.3593,12.3203,12.2617,12.0898,12.0312,12.0,11.8711,11.8593,11.8906,11.8281,11.7789,11.7297,11.6709,11.5913,11.4984,11.3599,11.2714,11.2022,11.1598,11.1522,11.1714,11.2522,11.3099,11.3791,11.5099,11.5599,11.6099,11.6407,11.6484,11.6484,11.6484,11.6484,11.6484,11.6484,11.6484,11.6215,11.5362,11.5285,11.4978,11.4209,11.3318,11.2396,11.1598,11.1491,11.0721,10.909,10.9794,10.9874,10.9104,10.9104,10.9104,10.9104,10.9104,10.9104,12.6211,12.7812,12.8711,12.9297,12.6015,11.8593,10.289,9.5898,0.0,0.0,6.8047,6.9336,7.4023,0.0,0.0,0.0,0.0,0.0,0.0,0.0,12.1992,0.0,13.1718,0.0,0.0,0.0,0.0,0.0,0.0,0.0,0.0,13.3203,13.4101,13.4297,13.4492,13.4492,13.4297,13.4297,13.3789,13.2812,13.2109,13.2187,13.3008,13.0703,13.039,13.1406,0.0,0.0,0.0,12.8593,12.8086,12.7304,12.7304,12.6406,12.5,12.4883,12.4414,12.3789,12.3593,12.3515,12.3398,12.2695,12.1914,12.1015,12.0117,11.9687,11.9492,11.8789,11.8197,11.7608,11.6897,11.6105,11.4868,11.2906,11.2022,11.1598,11.2022,11.1906,11.2099,11.3291,11.3907,11.4599,11.5407,11.6099,11.6599,11.6792,11.6792,11.6792,11.6792,11.6792,11.6792,11.6792,11.6599,11.6484,11.6484,11.6484,11.6484,11.6484,11.5285,11.4401,11.3972,11.3104,11.2218,11.1506,11.1868,11.1876,11.1491,11.1491,11.1491,11.1491,11.1491,11.1491,12.8281,12.9687,12.9218,13.1484,12.6015,11.6484,10.3203,0.0,8.5195,7.1094,6.7578,6.8828,7.4687,0.0,0.0,0.0,0.0,10.1211,11.4218,11.8008,12.2695,13.1484,0.0,0.0,13.1093,0.0,0.0,0.0,0.0,0.0,0.0,13.4414,13.5312,13.6015,13.6797,13.6914,13.6093,13.6093,13.5312,13.3711,13.3593,13.3984,13.4687,13.3789,13.3008,13.2304,0.0,0.0,0.0,12.8593,12.8086,12.7304,12.7304,12.6718,12.5781,12.5117,12.4687,12.4609,12.3789,12.3515,12.3515,12.3398,12.2812,12.1914,12.1015,12.0195,11.9609,11.9492,11.9297,11.8888,11.8607,11.7106,11.4989,11.2291,11.1598,11.1906,11.3407,11.3099,11.3291,11.5676,11.5599,11.5407,11.6176,11.6484,11.6792,11.76,11.7715,11.7715,11.7715,11.7722,11.7722,11.7715,11.6984,11.6484,11.6484,11.6484,11.6484,11.6484,11.6407,11.5638,11.4132,11.533,11.4593,11.1621,11.3011,11.2972,11.1506,11.1506,11.1506,11.1506,11.1506,11.1506,12.9297,13.1914,13.1914,13.2383,12.7617,11.8711,10.3086,0.0,8.5937,7.0586,6.7148,6.7617,7.0039,7.0781,0.0,0.0,0.0,0.0,10.1914,10.5508,11.1914,12.6797,12.8281,0.0,0.0,0.0,0.0,0.0,0.0,0.0,0.0,13.5586,13.6211,13.7109,13.539,13.4804,13.5508,13.5,13.4492,13.3789,13.3789,13.3984,13.4218,13.2304,13.1484,13.1601,0.0,0.0,0.0,12.8593,12.8398,12.8008,12.75,12.6797,12.5898,12.5117,12.4492,12.3984,12.3593,12.3515,12.3515,12.3515,12.3281,12.2812,12.1914,12.1406,12.1093,12.0508,12.0209,11.9527,11.7905,11.5407,11.3104,11.1983,11.1598,11.1714,11.2406,11.2599,11.3214,11.4714,11.5599,11.6292,11.71,11.7715,11.8215,11.8484,11.86,11.8407,11.7907,11.8292,11.8369,11.7907,11.6984,11.6676,11.7221,11.6792,11.6484,11.6484,11.6484,11.6215,11.5478,11.6099,11.5907,11.4516,11.517,11.517,11.4516,11.4516,11.4516,11.4516,11.4516,11.4516,13.0,13.3711,13.3789,13.3984,12.7812,11.789,10.3086,9.3594,8.3945,7.0117,6.707,6.6914,6.6914,6.7109,6.7969,7.0,0.0,7.789,9.2187,9.6445,10.3515,11.8203,0.0,0.0,0.0,0.0,0.0,0.0,0.0,0.0,0.0,13.5781,13.6015,13.6797,13.4297,13.3515,13.4609,13.4101,13.3711,13.3398,13.3398,13.3398,13.3281,13.1211,13.0508,13.0703,0.0,0.0,0.0,12.8593,12.8593,12.8515,12.7617,12.6797,12.5898,12.5117,12.4218,12.3515,12.3515,12.3515,12.3515,12.3515,12.3515,12.3398,12.2812,12.2383,12.2109,12.1484,12.0703,11.9703,11.8087,11.5695,11.3507,11.3377,11.3334,11.3176,11.3714,11.4022,11.4522,11.5599,11.6599,11.7484,11.81,11.8715,11.9215,11.9408,11.9485,11.9215,11.86,11.91,11.9215,11.86,11.7484,11.71,11.7722,11.7491,11.6984,11.6484,11.6676,11.6792,11.6484,11.6484,11.6484,11.6484,11.6484,11.6484,11.6484,11.6484,11.6484,11.6484,11.6484,11.6484,13.0703,13.5117,13.4414,13.6914,12.6015,11.2304,10.3594,9.0273,7.7617,6.9805,6.75,6.6914,6.6914,6.7617,6.8476,6.9375,7.5898,8.2734,8.8047,9.4687,10.0703,0.0,0.0,0.0,0.0,0.0,0.0,0.0,0.0,0.0,0.0,0.0,13.4218,13.5,13.4218,13.3789,13.3789,13.3789,13.3398,13.25,13.25,13.25,13.25,13.1601,13.0703,0.0,0.0,0.0,0.0,12.8593,12.8593,12.8515,12.7617,12.6797,12.5898,12.5117,12.4218,12.3515,12.3515,12.3515,12.3515,12.3515,12.3515,12.3515,12.3515,12.289,12.2187,12.2187,12.0703,11.9297,12.0195,11.8898,11.7322,11.6977,11.6919,11.7298,11.8677,11.8292,11.8215,11.9908,11.96,11.91,11.91,11.91,11.9408,12.0216,12.0292,12.0292,12.0292,12.0292,12.0292,12.0292,11.8792,11.7792,11.7799,11.8613,11.8299,11.6599,11.7298,11.7414,11.6484,11.6484,11.6484,11.6484,11.6484,11.6484,11.6484,11.6484,11.6484,11.6484,11.6484,11.6484,11.25,11.6601,11.6992,11.6601,11.1015,10.3281,9.4062,8.6054,7.8242,6.9922,6.75,6.6914,6.6914,6.7148,6.9336,7.5469,7.8515,8.2539,0.0,0.0,0.0,0.0,0.0,0.0,0.0,0.0,0.0,0.0,0.0,0.0,0.0,0.0,13.1211,13.3203,13.1289,13.0781,13.1992,13.1406,13.1289,13.1601,13.1601,13.1289,13.0703,13.039,0.0,0.0,0.0,0.0,0.0,12.8593,12.8593,12.8515,12.7617,12.6797,12.5898,12.5117,12.4218,12.3515,12.3515,12.3515,12.3515,12.3515,12.3515,12.3515,12.3515,12.289,12.1992,12.0781,11.9101,11.789,11.8789,11.7486,11.6187,11.7391,11.7491,11.7491,11.7914,11.8222,11.8607,11.9107,11.98,12.0338,12.0338,12.06,12.0908,12.1177,12.1177,12.0985,12.0408,12.0793,12.0985,12.0408,12.0408,11.9908,11.8792,11.8407,11.8023,11.7393,11.76,11.7683,11.7414,11.6792,11.6484,11.6484,11.6484,11.6484,11.6484,11.6484,11.6484,11.6484,11.6484,11.6221,10.2695,10.7695,10.8515,10.75,10.2695,9.6406,8.9531,8.2344,7.5508,6.9844,6.7734,6.6914,6.6914,6.7187,6.914,7.4492,7.918,0.0,0.0,0.0,0.0,0.0,0.0,0.0,0.0,0.0,0.0,0.0,0.0,0.0,0.0,0.0,12.9883,13.0508,12.9609,12.9804,13.1211,13.0,12.9687,13.0195,12.9883,12.9414,12.8906,12.9297,0.0,0.0,0.0,0.0,0.0,12.8593,12.8593,12.8515,12.7304,12.6484,12.5781,12.4414,12.3515,12.3008,12.3008,12.3008,12.3086,12.3398,12.3515,12.3398,12.3086,12.289,12.25,12.1406,11.9804,11.8711,12.0,11.8398,11.6992,11.9297,11.9197,11.8685,11.9291,11.9799,12.007,12.007,12.0805,12.1386,12.1269,12.1562,12.1677,12.16,12.16,12.1408,12.0908,12.1293,12.1408,12.0793,12.0985,12.0716,11.96,11.9408,11.9023,11.8323,11.86,11.8607,11.8299,11.7799,11.7491,11.7491,11.7221,11.6984,11.6984,11.6676,11.6484,11.6484,11.6215,11.5869,0.0,10.4883,10.5586,10.5586,9.8398,9.0664,8.8086,7.8789,0.0,6.9609,6.8086,6.6914,6.6992,6.7617,6.832,6.8906,0.0,0.0,0.0,0.0,0.0,0.0,0.0,0.0,0.0,0.0,0.0,0.0,0.0,0.0,0.0,0.0,0.0,12.7383,12.8906,13.0195,13.0898,12.9297,12.8515,12.8398,12.7695,12.7304,12.7304,12.8203,0.0,0.0,0.0,0.0,0.0,12.8593,12.8593,12.8398,12.6718,12.6015,12.5781,12.3203,12.2187,12.2304,12.2187,12.2109,12.2304,12.3086,12.3398,12.3281,12.25,12.2812,12.3398,12.3281,12.2109,12.1211,12.289,12.0898,11.9297,12.2304,12.1797,12.1001,12.2279,12.2607,12.2607,12.2607,12.2607,12.2493,12.2194,12.2085,12.1985,12.1677,12.16,12.16,12.16,12.16,12.16,12.16,12.0908,12.0408,12.0408,12.1108,12.08,11.9292,11.9908,11.9985,11.9229,11.9113,11.9113,11.9036,11.8183,11.7683,11.7683,11.6869,11.6484,11.6484,11.5715,11.5715,7.75,0.0,8.2461,8.2461,8.0625,7.832,0.0,7.3203,7.0273,6.8828,0.0,0.0,0.0,0.0,0.0,0.0,0.0,0.0,0.0,0.0,0.0,0.0,0.0,0.0,0.0,0.0,0.0,0.0,0.0,0.0,0.0,0.0,0.0,12.7304,12.8281,12.8711,12.8203,12.7812,12.7304,12.6601,12.7109,12.7304,12.7304,12.8203,0.0,0.0,0.0,0.0,12.8593,12.8593,12.8593,12.8398,12.6718,12.6406,12.6601,12.3398,12.2617,12.3008,12.1718,12.1211,12.1289,12.2187,12.25,12.2617,12.3086,12.289,12.2187,12.0898,12.0195,12.0195,12.1211,12.0898,12.0781,12.289,12.3086,12.2889,12.3184,12.3296,12.3296,12.3296,12.3101,12.2894,12.2796,12.2574,12.2301,12.1985,12.1985,12.187,12.16,12.16,12.16,12.16,12.1408,12.1293,12.1293,12.0869,12.0369,11.9985,12.0216,12.0169,12.0023,11.9361,11.8785,11.8131,11.7215,11.6792,11.6792,11.6599,11.6484,11.6484,11.5715,11.5362,6.9336,7.2031,7.4609,7.4609,7.4297,7.375,7.2812,7.1015,6.9297,0.0,0.0,0.0,0.0,0.0,0.0,0.0,0.0,0.0,0.0,0.0,0.0,0.0,0.0,0.0,0.0,0.0,0.0,0.0,0.0,0.0,0.0,0.0,0.0,0.0,12.75,12.7812,12.7304,12.6914,12.6289,12.5508,12.5898,12.6289,12.6718,0.0,0.0,0.0,0.0,0.0,12.7383,12.7383,12.7383,12.7304,12.6015,12.5703,12.5898,12.3593,12.2617,12.2187,12.1211,12.0898,12.1015,12.1484,12.1914,12.2304,12.2812,12.289,12.2617,12.1718,12.1406,12.1484,12.1992,12.1484,12.1289,12.3086,12.289,12.25,12.3281,12.3515,12.3515,12.3515,12.3398,12.3203,12.3008,12.28,12.2595,12.2304,12.2188,12.1985,12.187,12.1677,12.16,12.16,12.16,12.16,12.16,12.1177,12.0908,12.0869,12.0908,12.0908,12.0908,12.0477,11.9669,11.8407,11.7484,11.6869,11.6484,11.6484,11.6484,11.6484,11.6099,11.5907,6.8281,7.1445,7.4297,7.3906,7.3476,7.3008,7.2617,0.0,0.0,0.0,0.0,0.0,0.0,0.0,0.0,0.0,0.0,0.0,0.0,0.0,0.0,0.0,0.0,0.0,0.0,0.0,0.0,0.0,0.0,0.0,0.0,0.0,0.0,0.0,12.6718,12.6914,12.6484,12.6093,12.539,12.4609,12.4883,12.5312,12.6015,12.6992,0.0,0.0,0.0,0.0,12.6015,12.5703,12.5586,12.5508,12.4687,12.4492,12.4492,12.3281,12.2109,12.0898,12.0586,12.0508,12.0508,12.0781,12.1406,12.2109,12.2304,12.289,12.3515,12.3515,12.3515,12.3515,12.3515,12.2383,12.1718,12.3086,12.2383,12.1718,12.3203,12.3515,12.3515,12.3515,12.3515,12.3398,12.3086,12.3086,12.2989,12.2588,12.2419,12.2232,12.2232,12.187,12.1677,12.1677,12.16,12.16,12.16,12.16,12.16,12.16,12.16,12.16,12.16,12.1408,12.0608,11.9113,11.8106,11.7221,11.6484,11.6484,11.6484,11.6484,11.6407,11.6298,6.9687,7.1875,7.2969,7.082,7.125,7.164,6.9453,0.0,0.0,0.0,0.0,0.0,0.0,0.0,0.0,0.0,0.0,0.0,0.0,0.0,0.0,0.0,0.0,0.0,0.0,0.0,0.0,0.0,0.0,0.0,0.0,0.0,0.0,0.0,0.0,12.5195,12.3008,12.4297,12.4609,12.3711,12.5117,12.5898,12.6093,12.7695,12.8515,0.0,0.0,12.6211,12.5898,12.4492,12.3906,12.3789,12.289,12.3008,12.3398,12.1093,12.0508,12.0703,11.9218,11.8711,11.8906,12.039,12.1015,12.1406,12.289,12.3398,12.3515,12.3515,12.3515,12.3515,12.3515,12.3281,12.3203,12.3398,12.3281,12.3203,12.3398,12.3515,12.3515,12.3515,12.3515,12.3515,12.3398,12.3398,12.3281,12.2997,12.29,12.28,12.2488,12.2224,12.1985,12.1985,12.1793,12.16,12.16,12.16,12.16,12.16,12.16,12.16,12.16,12.0207,11.9408,11.9113,11.7491,11.6599,11.6484,11.6484,11.6484,11.6484,11.583,11.5522,6.832,6.9922,7.1836,7.4375,7.4219,7.2851,7.0742,0.0,0.0,0.0,0.0,0.0,0.0,0.0,0.0,0.0,0.0,0.0,0.0,0.0,0.0,0.0,0.0,0.0,0.0,0.0,0.0,0.0,0.0,0.0,0.0,0.0,0.0,0.0,0.0,0.0,12.1484,12.2304,12.25,12.2109,12.289,12.3984,12.539,12.6211,12.6797,12.7187,0.0,12.5,12.3203,12.2383,12.2109,12.2109,12.1718,12.1718,12.1914,12.0195,11.9883,12.0195,11.9804,11.9414,11.9218,12.0508,12.1211,12.1797,12.2617,12.3086,12.3515,12.3515,12.3515,12.3515,12.3515,12.3515,12.3515,12.3515,12.3515,12.3515,12.3515,12.3515,12.3515,12.3515,12.3515,12.3515,12.3515,12.3515,12.3398,12.3281,12.3086,12.2906,12.2806,12.25,12.2275,12.2309,12.1985,12.187,12.187,12.1677,12.16,12.16,12.16,12.16,12.16,12.0023,11.91,11.9107,11.7414,11.6484,11.6484,11.6484,11.6484,11.6484,11.6099,11.5907,6.8008,6.8906,7.1367,7.8047,0.0,0.0,0.0,0.0,0.0,0.0,0.0,0.0,0.0,0.0,0.0,0.0,0.0,0.0,0.0,0.0,0.0,0.0,0.0,0.0,0.0,0.0,0.0,0.0,0.0,0.0,0.0,0.0,0.0,0.0,0.0,0.0,12.0312,12.0312,12.0508,12.0898,12.1093,12.2304,12.4218,12.4414,12.4804,12.539,12.5,12.3281,12.0898,12.0508,12.0312,12.0312,12.0312,12.0312,12.0195,11.9804,11.9492,11.9414,12.0312,12.0,11.9414,12.0117,12.1015,12.1914,12.1914,12.2617,12.3515,12.3515,12.3515,12.3515,12.3515,12.3515,12.3515,12.3515,12.3515,12.3515,12.3515,12.3515,12.3515,12.3515,12.3515,12.3515,12.3515,12.3515,12.3515,12.3515,12.3281,12.3086,12.3086,12.2796,12.2608,12.2618,12.2299,12.2097,12.1993,12.1677,12.16,12.16,12.16,12.1485,12.1293,11.9715,11.8677,11.853,11.6984,11.6176,11.6176,11.6407,11.6484,11.6484,11.6484,11.6407,7.1211,7.1133,7.207,7.8164,0.0,0.0,0.0,0.0,0.0,0.0,0.0,0.0,0.0,0.0,0.0,0.0,0.0,0.0,0.0,0.0,0.0,0.0,0.0,0.0,0.0,0.0,0.0,0.0,0.0,0.0,0.0,0.0,0.0,0.0,0.0,0.0,11.8515,11.8515,11.9297,12.0898,12.1718,12.2187,12.2383,12.3203,12.3593,12.3593,12.1992,12.1093,12.0781,11.9218,11.8515,11.8515,11.8515,11.8515,11.8593,11.9297,11.9101,11.8515,11.9414,11.9101,11.8398,11.8515,11.9609,12.1015,12.1015,12.2187,12.3515,12.3515,12.3515,12.3515,12.3515,12.3515,12.3515,12.3515,12.3515,12.3515,12.3515,12.3515,12.3515,12.3515,12.3515,12.3515,12.3515,12.3515,12.3515,12.3515,12.3515,12.3515,12.3515,12.3202,12.3011,12.3023,12.2395,12.2,12.1731,12.16,12.16,12.16,12.16,12.1177,12.0408,11.8792,11.7484,11.6676,11.5792,11.5368,11.5407,11.6099,11.6484,11.6484,11.6484,11.6099,6.8672,6.8984,7.1758,8.2578,0.0,0.0,0.0,0.0,0.0,0.0,0.0,0.0,0.0,0.0,0.0,0.0,0.0,0.0,0.0,0.0,0.0,0.0,0.0,0.0,0.0,0.0,0.0,0.0,0.0,0.0,0.0,0.0,0.0,0.0,0.0,0.0,0.0,11.8281,11.8593,11.9297,11.9609,12.0312,12.1406,12.1718,12.1914,12.1797,12.1211,12.0312,11.9218,11.8593,11.8281,11.8281,11.8281,11.8281,11.8281,11.8711,11.8593,11.8398,11.9297,11.8984,11.8398,11.8906,11.9609,12.0117,12.0117,12.1289,12.2695,12.2695,12.3086,12.3515,12.3515,12.3515,12.3515,12.3515,12.3515,12.3515,12.3515,12.3515,12.3515,12.3515,12.3515,12.3515,12.3515,12.3515,12.3515,12.3515,12.3515,12.3515,12.3515,12.3398,12.3313,12.3292,12.2898,12.1995,12.0377,12.1293,12.0869,11.86,11.9408,11.9908,11.96,11.7407,11.6292,11.6484,11.5676,11.5484,11.5984,11.6407,11.6484,11.6484,11.6484,11.6099,6.7109,6.7148,0.0,0.0,0.0,0.0,0.0,0.0,0.0,0.0,0.0,0.0,0.0,0.0,0.0,0.0,0.0,0.0,0.0,0.0,0.0,0.0,0.0,0.0,0.0,0.0,0.0,0.0,0.0,0.0,0.0,0.0,0.0,0.0,0.0,0.0,0.0,11.8281,11.8281,11.8281,11.8281,11.8906,12.0117,12.0117,12.0117,12.0117,12.0117,11.9414,11.8281,11.8281,11.8281,11.8281,11.8281,11.8281,11.8281,11.8593,11.8515,11.8398,11.9297,11.8789,11.789,11.8281,11.8593,11.8789,11.8789,12.0195,12.1718,12.1484,12.2383,12.3398,12.2812,12.3086,12.3515,12.3515,12.3515,12.3515,12.3515,12.3515,12.3515,12.3515,12.3515,12.3515,12.3515,12.3515,12.3515,12.3515,12.3515,12.3515,12.3515,12.3515,12.3515,12.3398,12.3078,12.23,12.0495,12.1398,12.0723,11.7484,11.7907,11.8215,11.7907,11.5984,11.4984,11.5291,11.4791,11.4791,11.5291,11.5599,11.5907,11.6099,11.5792,11.5676,6.7578,0.0,0.0,0.0,0.0,0.0,0.0,0.0,0.0,0.0,0.0,0.0,0.0,0.0,0.0,0.0,0.0,0.0,0.0,0.0,0.0,0.0,0.0,0.0,0.0,0.0,0.0,0.0,0.0,0.0,0.0,0.0,0.0,0.0,0.0,0.0,0.0,11.8281,11.8281,11.8281,11.8281,11.8281,11.8281,11.8281,11.8281,11.8281,11.8281,11.8281,11.8281,11.8281,11.8281,11.8281,11.8281,11.8281,11.8398,11.9297,11.8984,11.8398,11.9297,11.8398,11.6914,11.6015,11.6289,11.6992,11.6992,11.8789,12.0703,11.9804,12.1484,12.3086,12.1406,12.2187,12.3515,12.3515,12.3515,12.3515,12.3515,12.3515,12.3515,12.3515,12.3515,12.3515,12.3515,12.3515,12.3515,12.3515,12.3515,12.3515,12.3515,12.3515,12.3398,12.3008,12.3008,12.2716,12.2082,12.2081,12.1192,11.9177,11.7407,11.6099,11.5291,11.4407,11.3599,11.2714,11.2714,11.2714,11.2714,11.3599,11.4407,11.5291,11.4407,11.4907,6.5625,0.0,0.0,0.0,0.0,0.0,0.0,0.0,0.0,0.0,0.0,0.0,0.0,0.0,0.0,0.0,0.0,0.0,0.0,0.0,0.0,0.0,0.0,0.0,0.0,0.0,0.0,0.0,0.0,0.0,0.0,0.0,0.0,0.0,0.0,0.0,0.0,11.8281,11.8281,11.8281,11.8281,11.8281,11.8281,11.8281,11.8281,11.8281,11.8281,11.8281,11.8281,11.8281,11.8281,11.8281,11.8281,11.8281,11.8281,11.8593,11.8515,11.8203,11.789,11.6992,11.6015,11.5117,11.5508,11.6015,11.539,11.6992,11.9101,11.9492,12.0586,12.1797,12.25,12.3086,12.3515,12.3515,12.3515,12.3515,12.3515,12.3515,12.3515,12.3515,12.3515,12.3515,12.3515,12.3515,12.3515,12.3515,12.3515,12.3515,12.3515,12.3515,12.3515,12.3398,12.3398,12.2183,11.9389,12.0099,11.8684,11.4286,11.4522,11.4599,11.4407,11.2983,11.2406,11.2714,11.2714,11.3022,11.3599,11.3907,11.4099,11.4407,11.4099,11.3907,0.0,0.0,0.0,0.0,0.0,0.0,0.0,0.0,0.0,0.0,0.0,0.0,0.0,0.0,0.0,0.0,0.0,0.0,0.0,0.0,0.0,0.0,0.0,0.0,0.0,0.0,0.0,0.0,0.0,0.0,0.0,0.0,0.0,0.0,0.0,0.0,11.8281,11.7617,11.7617,11.8281,11.7617,11.7695,11.8281,11.8281,11.8281,11.8281,11.8281,11.8281,11.8281,11.8281,11.8281,11.8281,11.8281,11.8281,11.8281,11.8281,11.8086,11.7695,11.7187,11.6406,11.5703,11.5117,11.539,11.5781,11.5586,11.6601,11.7812,11.8008,11.9414,12.1015,12.1289,12.25,12.3515,12.3515,12.3515,12.3515,12.3515,12.3515,12.3515,12.3515,12.3515,12.3515,12.3515,12.3515,12.3515,12.3515,12.3515,12.3515,12.3515,12.3515,12.3515,12.3515,12.3515,12.2187,11.9218,11.9588,11.7986,11.3214,11.3637,11.3714,11.3022,11.2022,11.1714,11.2214,11.2214,11.2522,11.2983,11.2983,11.3214,11.3483,11.3214,11.3099,0.0,0.0,0.0,0.0,0.0,0.0,0.0,0.0,0.0,0.0,0.0,0.0,0.0,0.0,0.0,0.0,0.0,0.0,0.0,0.0,0.0,0.0,0.0,0.0,0.0,0.0,0.0,0.0,0.0,0.0,0.0,0.0,0.0,0.0,0.0,0.0,11.8086,11.6406,11.6289,0.0,11.6289,11.6406,11.7812,11.8203,11.8281,11.8281,11.8281,11.8281,11.8281,11.8281,11.8281,11.8281,11.8281,11.8281,11.8281,11.8203,11.7695,11.7109,11.6914,11.6484,11.5898,11.5703,11.5703,11.5898,11.6484,11.6718,11.6601,11.6015,11.8086,12.0312,11.8906,12.1015,12.3515,12.3515,12.3515,12.3515,12.3515,12.3515,12.3515,12.3515,12.3515,12.3515,12.3515,12.3515,12.3515,12.3515,12.3515,12.3515,12.3515,12.3515,12.3515,12.3515,12.3515,12.2617,12.039,11.9888,11.8227,11.4417,11.3907,11.3099,11.1598,11.1522,11.1522,11.1522,11.1522,11.1522,11.1522,11.1522,11.1906,11.2599,11.1791,11.2291,0.0,0.0,0.0,0.0,0.0,0.0,0.0,0.0,0.0,0.0,0.0,0.0,0.0,0.0,0.0,0.0,0.0,0.0,0.0,0.0,0.0,0.0,0.0,0.0,0.0,0.0,0.0,0.0,0.0,0.0,0.0,0.0,0.0,0.0,0.0,11.6289,11.6289,11.4609,11.3906,0.0,11.3906,11.3906,11.4414,11.7109,11.8281,11.8281,11.8281,11.8281,11.8281,11.8281,11.8281,11.8281,11.8281,11.8281,11.8203,11.75,11.7617,11.7812,11.6484,11.6289,11.6484,11.5195,11.5195,11.5508,11.4414,11.4492,11.5117,11.5586,11.7187,11.9101,12.0117,12.1914,12.3515,12.3515,12.3515,12.3515,12.3515,12.3515,12.3515,12.3515,12.3515,12.3515,12.3515,12.3515,12.3515,12.3515,12.3515,12.3515,12.3515,12.3515,12.3515,12.3515,12.3515,12.2187,11.8984,11.8288,11.6491,11.2992,11.2291,11.1906,11.1522,11.1522,11.1522,11.1522,11.1522,11.1522,11.1522,11.1522,11.1598,11.1791,11.1598,11.1714,0.0,0.0,0.0,0.0,0.0,0.0,0.0,0.0,0.0,0.0,0.0,0.0,0.0,0.0,0.0,0.0,0.0,0.0,0.0,0.0,0.0,0.0,0.0,0.0,0.0,0.0,0.0,0.0,0.0,0.0,0.0,0.0,0.0,0.0,11.6601,11.5703,11.5703,11.3203,11.2383,11.3203,11.2383,11.2383,11.3281,11.5,11.6289,11.7109,11.7109,11.7617,11.8281,11.8281,11.8281,11.8281,11.8281,11.8281,11.8203,11.7304,11.7304,11.75,11.6211,11.6015,11.6211,11.539,11.539,11.5586,11.4687,11.4414,11.4609,11.5,11.6093,11.75,11.9218,12.0312,12.1406,12.3086,12.3515,12.3515,12.3515,12.3515,12.3398,12.3008,12.289,12.289,12.289,12.3203,12.3515,12.3515,12.3515,12.3281,12.289,12.289,12.2617,12.1718,12.1601,12.039,11.7304,11.6598,11.5093,11.2492,11.1791,11.1522,11.1522,11.1522,11.1522,11.1522,11.1522,11.1522,11.1522,11.1522,11.1522,11.1522,11.1522,11.1522,0.0,0.0,0.0,0.0,0.0,0.0,0.0,0.0,0.0,0.0,0.0,0.0,0.0,0.0,0.0,0.0,0.0,0.0,0.0,0.0,0.0,0.0,0.0,0.0,0.0,0.0,0.0,0.0,0.0,0.0,0.0,0.0,11.7695,11.7383,11.5703,11.4804,11.4804,11.1718,11.0898,11.2304,11.0781,11.0898,11.2304,11.2304,11.3398,11.539,11.539,11.6093,11.7383,11.7383,11.75,11.7617,11.7617,11.7695,11.7812,11.6992,11.6914,11.6914,11.6015,11.5781,11.5898,11.5586,11.5508,11.5508,11.5312,11.4804,11.4297,11.4297,11.5,11.6015,11.75,11.8086,11.9101,12.2304,12.289,12.289,12.3203,12.3203,12.2812,12.2109,12.2109,12.2187,12.2187,12.289,12.3515,12.3515,12.3398,12.3008,12.2304,12.1914,12.1211,11.9804,11.9492,11.8398,11.5898,11.5193,11.42,11.2376,11.1791,11.1522,11.1522,11.1522,11.1522,11.1522,11.1522,11.1522,11.1522,11.1522,11.1522,11.1522,11.1522,11.1522,0.0,0.0,0.0,0.0,0.0,0.0,0.0,0.0,0.0,0.0,0.0,0.0,0.0,0.0,0.0,0.0,0.0,0.0,0.0,0.0,0.0,0.0,0.0,0.0,0.0,0.0,0.0,0.0,0.0,0.0,0.0,11.6093,11.539,11.3906,11.2187,11.1289,11.1289,10.9297,10.8515,10.8711,10.8515,10.8515,10.8711,10.8711,11.0508,11.3515,11.3515,11.3711,11.3906,11.3906,11.4297,11.5,11.5,11.5508,11.6093,11.5898,11.6406,11.6914,11.6015,11.6211,11.6601,11.5117,11.4687,11.4492,11.3789,11.3515,11.3398,11.3398,11.4492,11.5781,11.6093,11.7187,11.8789,12.0781,12.0703,12.0508,12.1992,12.1797,12.1211,12.1093,12.1718,12.2187,12.2187,12.289,12.3515,12.3515,12.289,12.2304,12.2187,12.0898,11.9883,11.9609,11.8906,11.7695,11.5898,11.5193,11.42,11.2376,11.1791,11.1522,11.1522,11.1522,11.1522,11.1522,11.1522,11.1522,11.1522,11.1522,11.1522,11.1522,11.1522,11.1522,0.0,0.0,0.0,0.0,0.0,0.0,0.0,0.0,0.0,0.0,0.0,0.0,0.0,0.0,0.0,0.0,0.0,0.0,0.0,0.0,0.0,0.0,0.0,0.0,0.0,0.0,0.0,0.0,0.0,0.0,11.5781,11.4804,11.3984,11.3203,11.1484,11.0586,11.0586,10.8906,10.8008,10.8008,10.8008,10.8008,10.8008,10.8008,10.9414,11.1718,11.1718,11.2304,11.3203,11.3203,11.3398,11.3789,11.4297,11.4687,11.5117,11.5508,11.5898,11.6211,11.5781,11.5703,11.5508,11.4687,11.4218,11.3711,11.3281,11.3203,11.3203,11.3203,11.3711,11.4492,11.5508,11.5586,11.6093,11.8789,11.8398,11.789,11.9609,12.0508,12.0586,11.9609,12.0508,12.1289,12.0781,12.2304,12.3203,12.2187,12.1718,12.0898,11.9492,11.8593,11.7812,11.6797,11.6406,11.5703,11.4414,11.3912,11.3301,11.238,11.1906,11.1714,11.1522,11.1522,11.1522,11.1522,11.1522,11.1522,11.1522,11.1522,11.1522,11.1522,11.1522,11.1522,0.0,0.0,0.0,0.0,0.0,0.0,0.0,0.0,0.0,0.0,0.0,0.0,0.0,0.0,0.0,0.0,0.0,0.0,0.0,0.0,0.0,0.0,0.0,0.0,0.0,0.0,0.0,0.0,0.0,0.0,11.5117,11.3515,11.2304,11.1914,11.0586,10.9883,10.9883,10.8593,10.8008,10.8008,10.8008,10.8008,10.8008,10.8008,10.8711,10.9883,10.9883,11.0703,11.1914,11.1914,11.1992,11.2304,11.289,11.3398,11.3906,11.4804,11.5195,11.539,11.539,11.5,11.4492,11.4218,11.3711,11.3203,11.3203,11.3203,11.3203,11.3203,11.3203,11.3515,11.4687,11.4101,11.3984,11.7187,11.6718,11.5898,11.789,11.9297,11.9883,11.8593,11.9492,12.039,12.0,12.1406,12.2109,12.1093,12.0312,11.9218,11.7304,11.6601,11.5898,11.4609,11.4297,11.3906,11.3281,11.289,11.2588,11.2305,11.1997,11.1791,11.1522,11.1522,11.1522,11.1522,11.1522,11.1522,11.1522,11.1522,11.1522,11.1522,11.1522,11.1522,0.0,0.0,0.0,9.6445,0.0,0.0,0.0,0.0,0.0,0.0,0.0,0.0,0.0,0.0,0.0,0.0,0.0,0.0,0.0,0.0,0.0,0.0,0.0,0.0,0.0,0.0,0.0,0.0,0.0,0.0,11.3398,11.1718,11.0,10.8281,10.8203,10.8086,10.8086,10.8008,10.8008,10.8008,10.8008,10.8008,10.8008,10.8008,10.8008,10.8086,10.8086,10.8203,10.8281,10.8281,10.8789,10.9492,10.9609,11.0586,11.2109,11.3008,11.3906,11.4609,11.4609,11.4492,11.4414,11.3515,11.3203,11.3203,11.3203,11.3203,11.3203,11.3203,11.3203,11.3203,11.3281,11.3281,11.3906,11.6484,11.5781,11.5195,11.7812,11.8398,11.8398,11.8281,11.8984,11.9883,12.0703,12.0312,12.0117,12.0781,11.8789,11.7187,11.6992,11.5586,11.4609,11.4492,11.3789,11.3203,11.3203,11.289,11.2617,11.2305,11.1993,11.1791,11.1522,11.1522,11.1522,11.1522,11.1522,11.1522,11.1522,11.1522,11.1522,11.1522,11.1522,11.1522,0.0,0.0,0.0,9.5625,10.0195,10.4804,0.0,0.0,0.0,0.0,0.0,0.0,0.0,0.0,0.0,0.0,0.0,0.0,0.0,0.0,0.0,0.0,0.0,0.0,0.0,0.0,0.0,0.0,0.0,0.0,11.1601,10.9883,10.8593,10.8008,10.8008,10.8008,10.8008,10.8008,10.8008,10.8008,10.8008,10.8008,10.8008,10.8008,10.8008,10.8008,10.8008,10.8008,10.8008,10.8008,10.8203,10.8515,10.9101,11.0,11.1211,11.2695,11.3398,11.3711,11.4297,11.4101,11.3593,11.3281,11.3203,11.3203,11.3203,11.3203,11.3203,11.3203,11.3203,11.3203,11.3203,11.3203,11.3593,11.5,11.4883,11.4883,11.6289,11.75,11.7812,11.6211,11.7383,11.8515,11.7812,11.8281,11.7617,11.3984,11.5,11.4804,11.0898,11.3281,11.4883,11.3789,11.4297,11.4414,11.3281,11.3086,11.2819,11.2308,11.2183,11.1983,11.1522,11.1522,11.1522,11.1522,11.1522,11.1522,11.1522,11.1522,11.1522,11.1522,11.1522,11.1522,7.1562,0.0,0.0,0.0,0.0,9.6054,0.0,0.0,0.0,0.0,0.0,0.0,0.0,0.0,0.0,0.0,0.0,0.0,0.0,0.0,0.0,0.0,0.0,0.0,0.0,0.0,0.0,0.0,0.0,0.0,11.0586,10.8906,10.8008,10.8008,10.8008,10.789,10.7617,10.7617,10.7383,10.7187,10.7383,10.7617,10.7617,10.789,10.8008,10.8008,10.8008,10.8008,10.8008,10.8008,10.8008,10.8086,10.8593,10.9414,11.0312,11.1797,11.25,11.289,11.3789,11.3711,11.3203,11.3203,11.3203,11.3203,11.3203,11.3203,11.3203,11.3203,11.3203,11.3203,11.3203,11.3398,11.3711,11.3984,11.4492,11.4883,11.4883,11.6211,11.6914,11.5195,11.6289,11.7187,11.6289,11.6718,11.5781,11.1992,11.3398,11.3515,10.9414,11.2383,11.4492,11.3281,11.4218,11.4609,11.4101,11.3515,11.3209,11.3203,11.2608,11.2099,11.1522,11.1522,11.1522,11.1522,11.1522,11.1522,11.1522,11.1522,11.1522,11.1522,11.1522,11.1291,0.0,0.0,0.0,0.0,0.0,0.0,0.0,0.0,0.0,0.0,0.0,0.0,0.0,0.0,0.0,0.0,0.0,0.0,0.0,0.0,0.0,0.0,0.0,0.0,0.0,0.0,0.0,0.0,0.0,11.0586,11.0508,10.8906,10.8008,10.8008,10.8008,10.7617,10.6719,10.6719,10.6289,10.5508,10.6289,10.6719,10.6719,10.7617,10.8008,10.8008,10.8008,10.8008,10.8008,10.8008,10.8008,10.8008,10.8008,10.8515,10.9414,11.0312,11.1211,11.1992,11.289,11.3203,11.3203,11.3203,11.3203,11.3203,11.3203,11.3203,11.3203,11.3203,11.3203,11.3203,11.3203,11.3789,11.4218,11.3398,11.4414,11.5195,11.3593,11.4492,11.5586,11.5586,11.5703,11.6015,11.6797,11.5508,11.4687,11.539,11.4101,11.3008,11.3086,11.3086,11.3086,11.3281,11.3281,11.3906,11.5508,11.4101,11.3717,11.482,11.3223,11.2099,11.1522,11.1522,11.1522,11.1522,11.1522,11.1522,11.1522,11.1522,11.1522,11.1522,11.1522,11.1021,6.1992,0.0,0.0,0.0,0.0,0.0,0.0,0.0,0.0,0.0,0.0,0.0,0.0,0.0,0.0,0.0,0.0,0.0,0.0,0.0,0.0,0.0,0.0,0.0,0.0,0.0,0.0,0.0,11.1093,11.0,10.8789,10.8281,10.8008,10.8008,10.7383,10.6914,10.6719,10.6093,10.5703,10.5508,10.5703,10.6093,10.6719,10.6914,10.7383,10.8008,10.8008,10.8008,10.8008,10.8008,10.8008,10.8008,10.8008,10.8515,10.9414,11.0312,11.1211,11.1992,11.289,11.3203,11.3203,11.3203,11.3203,11.3203,11.3203,11.3203,11.3203,11.3203,11.3203,11.3203,11.3203,11.3398,11.3515,11.3281,11.3593,11.3789,11.3281,11.3593,11.3906,11.3906,11.4414,11.4687,11.4297,11.3906,11.2617,10.9687,10.8789,10.8984,11.0195,11.039,11.1601,11.4687,11.5117,11.4804,11.3984,11.3515,11.3092,11.3009,11.2608,11.2099,11.1522,11.1522,11.1522,11.1522,11.1522,11.1522,11.1522,11.1522,11.1522,11.1522,11.0906,11.0406,6.1719,6.207,0.0,0.0,0.0,0.0,0.0,8.6328,0.0,0.0,0.0,0.0,0.0,0.0,0.0,0.0,0.0,0.0,0.0,0.0,0.0,0.0,0.0,0.0,0.0,0.0,0.0,11.1211,11.0508,10.9492,10.8086,10.7695,10.7617,10.8008,10.6797,10.6211,10.6211,10.539,10.4804,10.4414,10.5195,10.539,10.5195,10.6601,10.7109,10.6992,10.7695,10.8008,10.8008,10.8008,10.8008,10.8008,10.8008,10.8281,10.8906,10.9687,11.0586,11.1484,11.2383,11.289,11.3203,11.3203,11.3203,11.3203,11.3203,11.3203,11.3203,11.3203,11.3203,11.3203,11.3203,11.3203,11.3203,11.3203,11.3203,11.3203,11.3203,11.3203,11.3203,11.3203,11.3593,11.3789,11.3281,11.3203,11.2304,10.9804,10.9414,10.9804,11.0781,11.0898,11.1914,11.4414,11.4687,11.4609,11.4297,11.3593,11.3307,11.3502,11.277,11.2099,11.1714,11.1598,11.1522,11.1522,11.1522,11.1522,11.1522,11.1522,11.1522,11.1522,11.0983,11.0406,6.1875,6.1992,6.2812,0.0,0.0,0.0,8.0664,8.5976,0.0,0.0,0.0,0.0,0.0,0.0,0.0,0.0,0.0,0.0,0.0,0.0,0.0,0.0,0.0,0.0,0.0,11.3008,11.2109,11.1914,11.0195,10.8789,10.8008,10.7109,10.6992,10.7812,10.6211,10.539,10.539,10.4492,10.3711,10.289,10.4414,10.4297,10.3008,10.5898,10.6484,10.5312,10.6992,10.7695,10.7695,10.789,10.8008,10.8008,10.8008,10.8008,10.8086,10.8984,10.9883,11.0703,11.1601,11.25,11.3203,11.3203,11.3203,11.3203,11.3203,11.3203,11.3203,11.3203,11.3203,11.3203,11.3203,11.3203,11.3203,11.3203,11.3203,11.3203,11.3203,11.3203,11.3203,11.3203,11.3203,11.3203,11.3203,11.3203,11.3203,11.3203,11.2812,11.2695,11.3398,11.289,11.2695,11.3398,11.3281,11.3789,11.539,11.4101,11.371,11.4917,11.3295,11.2187,11.1906,11.1598,11.1522,11.1522,11.1522,11.1522,11.1522,11.1522,11.1522,11.1522,11.1291,11.0406,6.293,6.3789,6.4687,0.0,0.0,0.0,0.0,7.2187,0.0,0.0,0.0,0.0,0.0,0.0,0.0,0.0,0.0,0.0,0.0,0.0,0.0,0.0,0.0,0.0,0.0,11.3789,11.3398,11.1992,10.9609,10.8203,10.8008,10.6601,10.6093,10.6914,10.5312,10.4492,10.4492,10.3594,10.3086,10.289,10.25,10.2617,10.289,10.289,10.3086,10.3515,10.5195,10.6015,10.6093,10.7383,10.8008,10.8008,10.8008,10.8008,10.8086,10.8984,10.9883,11.0703,11.1601,11.25,11.3203,11.3203,11.3203,11.3203,11.3203,11.3203,11.3203,11.3203,11.3203,11.3203,11.3203,11.3203,11.3203,11.3203,11.3203,11.3203,11.3203,11.3203,11.3203,11.3203,11.3203,11.3203,11.3203,11.3203,11.3203,11.3203,11.0312,10.9804,11.4609,11.1015,10.9804,11.4804,11.3984,11.3281,11.3711,11.3398,11.3103,11.2905,11.2495,11.2096,11.1603,11.1522,11.1522,11.1522,11.1522,11.1522,11.1522,11.1522,11.1522,11.1522,11.0098,10.9213,6.332,6.3633,6.4414,6.4844,0.0,0.0,0.0,0.0,0.0,0.0,0.0,0.0,0.0,0.0,0.0,0.0,0.0,0.0,0.0,0.0,0.0,0.0,0.0,0.0,0.0,11.3593,11.289,11.0781,10.8984,10.7617,10.6797,10.5508,10.5195,10.6093,10.4414,10.3789,10.4219,10.3281,10.289,10.289,10.289,10.2383,10.1601,10.25,10.2383,10.1719,10.4414,10.5508,10.5586,10.7304,10.8008,10.8008,10.8008,10.8008,10.8086,10.8515,10.9218,11.0117,11.0898,11.1797,11.2617,11.3086,11.3203,11.3203,11.3203,11.3203,11.3203,11.3203,11.3203,11.3203,11.3203,11.3203,11.3203,11.3203,11.3203,11.3203,11.3203,11.3203,11.3203,11.3203,11.3203,11.3203,11.3203,11.3203,11.3203,11.3203,11.1406,11.1093,11.4101,11.1797,11.1093,11.4218,11.3711,11.3203,11.3203,11.3203,11.3008,11.2522,11.2389,11.2109,11.1718,11.1598,11.1522,11.1522,11.1522,11.1522,11.1522,11.1522,11.1522,11.1522,11.0214,10.929,0.0,0.0,0.0,0.0,0.0,6.5664,0.0,0.0,0.0,0.0,0.0,0.0,0.0,0.0,0.0,0.0,0.0,0.0,0.0,0.0,0.0,0.0,0.0,0.0,0.0,11.2109,11.1211,10.9414,10.7695,10.6406,10.5508,10.4492,10.4297,10.5195,10.3711,10.3203,10.3906,10.3281,10.289,10.289,10.3281,10.2304,10.039,10.2109,10.1797,10.0,10.3515,10.5,10.5195,10.7187,10.8008,10.8008,10.8008,10.8008,10.8008,10.8008,10.8593,10.9414,11.0117,11.0898,11.1797,11.2695,11.3086,11.3203,11.3203,11.3203,11.3203,11.3203,11.3203,11.3203,11.3203,11.3203,11.3203,11.3203,11.3203,11.3203,11.3203,11.3203,11.3203,11.3203,11.3203,11.3203,11.3203,11.3203,11.3203,11.3203,11.3203,11.3203,11.3203,11.3203,11.3203,11.3203,11.3203,11.3203,11.3203,11.3196,11.2982,11.2618,11.238,11.2175,11.1791,11.1598,11.1522,11.1522,11.1522,11.1522,11.1522,11.1522,11.1406,11.1214,11.0406,10.9483,0.0,0.0,0.0,0.0,6.9531,0.0,0.0,0.0,0.0,0.0,0.0,0.0,0.0,0.0,0.0,0.0,0.0,0.0,0.0,0.0,0.0,0.0,0.0,0.0,0.0,0.0,10.8008,10.9218,10.5,10.3281,10.539,10.3906,10.3398,10.4297,10.3398,10.289,10.3008,10.289,10.289,10.289,10.1406,10.0586,10.0312,9.9023,9.8281,9.8203,10.1719,10.3203,10.3398,10.6719,10.8008,10.8008,10.8008,10.8008,10.8008,10.8008,10.8593,10.9297,10.9414,11.0,11.0898,11.1797,11.2617,11.3203,11.3203,11.3203,11.3203,11.3203,11.3203,11.3203,11.3203,11.3203,11.3203,11.3203,11.3203,11.3203,11.3203,11.3203,11.3203,11.3203,11.3203,11.3203,11.3203,11.3203,11.3203,11.3203,11.3203,11.3203,11.3203,11.3203,11.3203,11.3203,11.3203,11.3203,11.3203,11.319,11.3009,11.241,11.2305,11.2099,11.1598,11.1522,11.1522,11.1522,11.1522,11.1522,11.1522,11.1522,11.1098,11.0291,10.9483,10.8598,0.0,0.0,0.0,0.0,0.0,0.0,0.0,0.0,6.3828,0.0,0.0,0.0,0.0,0.0,0.0,0.0,0.0,0.0,0.0,0.0,0.0,0.0,0.0,0.0,0.0,0.0,0.0,0.0,0.0,10.2109,10.3203,10.3008,10.3086,10.3398,10.3086,10.289,10.289,10.289,10.289,10.289,10.1601,10.0781,10.0312,9.9023,9.8164,9.7851,10.0312,10.1992,10.3086,10.5508,10.7109,10.8008,10.8008,10.8008,10.8008,10.8008,10.8203,10.8593,10.9101,10.9883,11.0781,11.2187,11.289,11.3203,11.3203,11.3203,11.3203,11.3203,11.3203,11.3203,11.3203,11.3203,11.3203,11.3203,11.3203,11.3203,11.3203,11.3203,11.3203,11.3203,11.3203,11.3203,11.3203,11.3203,11.3203,11.3203,11.3203,11.3203,11.3203,11.3203,11.3203,11.3203,11.3203,11.3203,11.3203,11.3204,11.2889,11.2305,11.1989,11.1714,11.1522,11.1522,11.1522,11.1522,11.1522,11.1522,11.1522,11.0983,11.0291,10.9406,10.9098,10.8482,7.546,0.0,0.0,0.0,0.0,0.0,0.0,0.0,0.0,0.0,0.0,0.0,0.0,0.0,0.0,0.0,0.0,0.0,0.0,0.0,0.0,0.0,0.0,0.0,0.0,0.0,0.0,0.0,0.0,0.0,10.1484,10.2187,10.2695,10.289,10.289,10.289,10.289,10.289,10.289,10.289,10.1797,10.0898,10.0312,9.914,9.8281,9.7812,9.9531,10.1289,10.3008,10.4804,10.6484,10.8008,10.8008,10.8008,10.8008,10.8008,10.8008,10.8086,10.8711,10.9492,11.0508,11.1992,11.2617,11.289,11.3086,11.3203,11.3203,11.3203,11.3203,11.3203,11.3203,11.3203,11.3203,11.3203,11.3203,11.3203,11.3203,11.3203,11.3203,11.3203,11.3203,11.3203,11.3203,11.3203,11.3203,11.3203,11.3203,11.3203,11.3203,11.3203,11.3203,11.3203,11.3203,11.3203,11.3203,11.3204,11.29,11.2297,11.1807,11.1522,11.1522,11.1522,11.1522,11.1522,11.1291,11.1098,11.1098,11.0291,10.9406,10.8598,10.8598,10.8098,0.0,0.0,0.0,0.0,0.0,0.0,0.0,0.0,6.6484,0.0,0.0,0.0,0.0,0.0,0.0,0.0,0.0,0.0,0.0,0.0,0.0,0.0,0.0,0.0,0.0,0.0,0.0,0.0,0.0,0.0,10.1211,10.1601,10.1992,10.289,10.289,10.289,10.289,10.289,10.289,10.289,10.1211,10.0312,10.0195,9.8515,9.7734,9.7812,9.9531,10.1289,10.3008,10.4804,10.6484,10.8008,10.8008,10.8008,10.8008,10.8008,10.8008,10.8008,10.8008,10.8593,10.9492,11.039,11.1289,11.2109,11.289,11.3203,11.3203,11.3203,11.3203,11.3203,11.3203,11.3203,11.3203,11.3203,11.3203,11.3203,11.3203,11.3203,11.3203,11.3203,11.3203,11.3203,11.3203,11.3203,11.3203,11.3203,11.3203,11.3203,11.3203,11.3203,11.3203,11.3203,11.3203,11.3203,11.3203,11.3204,11.2891,11.2303,11.1834,11.1522,11.1522,11.1522,11.1522,11.1522,11.0714,11.0214,11.0214,10.9406,10.8482,10.7713,10.7713,10.729,0.0,0.0,8.6047,8.0453,0.0,0.0,0.0,0.0,0.0,0.0,0.0,0.0,0.0,0.0,0.0,0.0,0.0,0.0,0.0,0.0,0.0,0.0,0.0,0.0,0.0,0.0,0.0,0.0,8.5898,0.0,0.0,9.7617,9.9414,10.1992,10.2617,10.289,10.289,10.289,10.289,10.289,10.1719,10.0898,10.0312,9.9101,9.8242,9.7734,9.832,10.0195,10.289,10.3515,10.539,10.8008,10.8008,10.8008,10.8008,10.8008,10.8008,10.8086,10.8711,10.9101,10.9297,10.9609,10.9883,11.0117,10.9804,10.9804,11.0,11.1211,11.1484,11.1718,11.289,11.3203,11.3203,11.3203,11.3203,11.3203,11.3203,11.3203,11.3203,11.3203,11.3203,11.3203,11.3203,11.3203,11.3203,11.3203,11.3203,11.3203,11.3203,11.3203,11.3203,11.3203,11.3203,11.3189,11.319,11.2813,11.2425,11.2107,11.1714,11.1522,11.1522,11.1522,11.1214,11.0714,11.0406,10.9906,10.929,10.8482,10.7982,10.7713,10.7098,10.6713,9.7904,9.579,0.0,0.0,8.3972,0.0,7.3938,0.0,0.0,0.0,0.0,0.0,0.0,0.0,0.0,6.8945,6.7969,6.6211,0.0,6.2305,0.0,0.0,0.0,0.0,0.0,0.0,7.5859,7.9414,8.0937,0.0,0.0,0.0,9.7031,9.9258,10.1601,10.289,10.289,10.289,10.289,10.289,10.1992,10.1094,10.0312,9.9414,9.8515,9.7695,9.7695,9.9687,10.289,10.289,10.4883,10.8008,10.8008,10.8008,10.8008,10.8008,10.8008,10.8086,10.8593,10.8593,10.8398,10.8711,10.8593,10.8281,10.8086,10.8008,10.8203,10.9414,11.0117,11.0898,11.1992,11.2695,11.3203,11.3203,11.3203,11.3203,11.3203,11.3203,11.3203,11.3203,11.3203,11.3203,11.3203,11.3203,11.3203,11.3203,11.3203,11.3203,11.3203,11.3203,11.319,11.3216,11.3109,11.3009,11.2909,11.2414,11.2091,11.1911,11.1598,11.1522,11.1522,11.1522,11.1098,11.0214,10.9906,10.929,10.8482,10.7598,10.7213,10.7213,10.6713,10.6405]},{"header":{"parameterUnit":"m.s-1","parameterCategory":1,"la1":30.6,"la2":29.2853,"lo1":-89.7004,"lo2":-87.6739,"dy":0.0162,"dx":0.0183,"nx":112,"ny":82,"refTime":"2026-03-11T12:00:00:Z","depth":0,"parameterNumber":3,"parameterNumberName":"V-component_of_WINDS"},"data":[0.0,0.0,0.0,0.0,0.0,0.0,0.0,0.0,0.0,0.0,0.0,0.0,0.0,0.0,0.0,0.0,0.0,0.0,0.0,0.0,0.0,0.0,0.0,0.0,0.0,0.0,0.0,0.0,0.0,0.0,0.0,0.0,0.0,0.0,0.0,0.0,0.0,0.0,0.0,0.0,0.0,0.0,0.0,0.0,0.0,0.0,0.0,0.0,0.0,0.0,0.0,0.0,0.0,0.0,0.0,0.0,0.0,0.0,0.0,0.0,0.0,0.0,0.0,0.0,0.0,0.0,0.0,0.0,0.0,0.0,0.0,0.0,0.0,0.0,0.0,0.0,0.0,0.0,0.0,0.0,0.0,0.0,0.0,0.0,0.0,0.0,0.0,0.0,0.0,0.0,0.0,-1.2644,-1.3661,-1.4366,-1.4256,-1.3682,-1.2916,-1.1817,0.0,0.0,0.0,0.0,0.0,0.0,0.0,0.0,0.0,0.0,0.0,0.0,0.0,0.0,0.0,0.0,0.0,0.0,0.0,0.0,0.0,0.0,0.0,0.0,0.0,0.0,0.0,0.0,0.0,0.0,0.0,0.0,0.0,0.0,0.0,0.0,0.0,0.0,0.0,0.0,0.0,0.0,0.0,0.0,0.0,0.0,0.0,0.0,0.0,0.0,0.0,0.0,0.0,0.0,0.0,0.0,0.0,0.0,0.0,0.0,0.0,0.0,0.0,0.0,0.0,0.0,0.0,0.0,0.0,0.0,0.0,0.0,0.0,0.0,0.0,0.0,0.0,0.0,0.0,0.0,0.0,0.0,0.0,0.0,0.0,0.0,0.0,0.0,0.0,0.0,0.0,0.0,0.0,0.0,0.0,0.0,0.0,0.0,0.0,0.0,0.0,0.0,0.0,0.0,-1.154,-1.3839,-1.4215,-1.4231,-1.4235,-1.372,-1.3116,-1.2422,0.0,0.0,0.0,0.0,0.0,0.0,0.0,0.0,0.0,0.0,0.0,0.0,0.0,0.0,0.0,0.0,0.0,0.0,0.0,0.0,0.0,0.0,0.0,0.0,0.0,0.0,0.0,0.0,0.0,0.0,0.0,0.0,0.0,0.0,0.0,0.0,0.0,0.0,0.0,0.0,0.0,0.0,0.0,0.0,0.0,0.0,0.0,0.0,0.0,0.0,0.0,0.0,0.0,0.0,0.0,0.0,0.0,0.0,0.0,0.0,0.0,0.0,0.0,0.0,0.0,0.0,0.0,0.0,0.0,0.0,0.0,0.0,0.0,0.0,0.0,0.0,0.0,0.0,0.0,0.0,0.0,0.0,0.0,0.0,0.0,0.0,0.0,0.0,0.0,0.0,0.0,0.0,0.0,0.0,0.0,0.0,0.0,0.0,0.0,0.0,0.0,0.0,0.0,-1.2635,-1.3056,-1.4187,-1.4345,-1.4238,-1.4263,-1.402,-1.3436,-1.2498,-1.1338,0.0,0.0,0.0,0.0,0.0,0.0,0.0,0.0,0.0,0.0,0.0,0.0,0.0,0.0,0.0,0.0,0.0,0.0,0.0,0.0,0.0,0.0,0.0,0.0,0.0,0.0,0.0,0.0,0.0,0.0,0.0,0.0,0.0,0.0,0.0,0.0,0.0,0.0,0.0,0.0,0.0,0.0,0.0,0.0,0.0,0.0,0.0,0.0,0.0,0.0,0.0,0.0,0.0,0.0,0.0,0.0,0.0,0.0,0.0,0.0,0.0,0.0,0.0,0.0,0.0,0.0,0.0,0.0,0.0,0.0,0.0,0.0,0.0,0.0,0.0,0.0,0.0,0.0,0.0,0.0,0.0,0.0,0.0,0.0,0.0,0.0,0.0,0.0,0.0,0.0,0.0,0.0,0.0,0.0,0.0,0.0,0.0,0.0,0.0,0.0,0.0,0.0,-1.3362,-1.429,-1.4381,-1.4231,-1.4251,-1.4311,-1.4252,-1.3824,-1.2706,-1.1496,0.0,0.0,0.0,0.0,0.0,0.0,0.0,0.0,0.0,0.0,0.0,0.0,0.0,0.0,0.0,0.0,0.0,0.0,0.0,0.0,0.0,0.0,0.0,0.0,0.0,0.0,0.0,0.0,0.0,0.0,0.0,0.0,0.0,0.0,0.0,0.0,0.0,0.0,0.0,0.0,0.0,0.0,0.0,0.0,0.0,0.0,0.0,0.0,0.0,0.0,0.0,0.0,0.0,0.0,0.0,0.0,0.0,0.0,0.0,0.0,0.0,0.0,0.0,0.0,0.0,0.0,0.0,0.0,0.0,0.0,0.0,0.0,0.0,0.0,0.0,0.0,0.0,0.0,0.0,0.0,0.0,0.0,0.0,0.0,0.0,0.0,0.0,0.0,0.0,0.0,0.0,0.0,0.0,0.0,0.0,0.0,0.0,0.0,0.0,0.0,0.0,0.0,-1.2876,-1.4266,-1.4231,-1.4292,-1.4299,-1.4285,-1.4361,-1.401,-1.331,-1.1698,0.0,0.0,0.0,0.0,0.0,0.0,0.0,0.0,0.0,0.0,0.0,0.0,0.0,0.0,0.0,0.0,0.0,0.0,0.0,0.0,0.0,0.0,0.0,0.0,0.0,0.0,0.0,0.0,0.0,0.0,0.0,0.0,0.0,0.0,0.0,0.0,0.0,0.0,0.0,0.0,0.0,0.0,0.0,0.0,0.0,0.0,0.0,0.0,0.0,0.0,0.0,0.0,0.0,0.0,0.0,0.0,0.0,0.0,0.0,0.0,0.0,0.0,0.0,0.0,0.0,0.0,0.0,0.0,0.0,0.0,0.0,0.0,0.0,0.0,0.0,0.0,0.0,0.0,0.0,0.0,0.0,0.0,0.0,0.0,0.0,0.0,0.0,0.0,0.0,0.0,0.0,0.0,0.0,0.0,0.0,0.0,0.0,0.0,0.0,0.0,0.0,0.0,-1.3568,-1.4287,0.0,-1.4299,-1.4299,-1.4299,-1.4259,-1.3591,-1.1779,0.0,0.0,0.0,0.0,0.0,0.0,0.0,0.0,0.0,0.0,0.0,0.0,0.0,0.0,0.0,0.0,0.0,0.0,0.0,0.0,0.0,0.0,0.0,0.0,0.0,0.0,0.0,0.0,0.0,0.0,0.0,0.0,0.0,0.0,0.0,0.0,0.0,0.0,0.0,0.0,0.0,0.0,0.0,0.0,0.0,0.0,0.0,0.0,0.0,0.0,0.0,0.0,0.0,0.0,0.0,0.0,0.0,0.0,0.0,0.0,0.0,0.0,0.0,0.0,0.0,0.0,0.0,0.0,0.0,0.0,0.0,0.0,0.0,0.0,0.0,0.0,0.0,0.0,0.0,0.0,0.0,0.0,0.0,0.0,0.0,0.0,0.0,0.0,0.0,0.0,0.0,0.0,0.0,0.0,0.0,0.0,0.0,0.0,0.0,0.0,0.0,0.0,-1.313,-1.3967,-1.4309,0.0,-1.4269,-1.4322,-1.4222,-1.4373,-1.3405,-1.1348,0.0,0.0,0.0,0.0,0.0,0.0,0.0,0.0,0.0,0.0,0.0,0.0,0.0,0.0,0.0,0.0,0.0,0.0,0.0,0.0,0.0,0.0,0.0,0.0,0.0,0.0,0.0,0.0,0.0,0.0,0.0,0.0,0.0,0.0,0.0,0.0,0.0,0.0,0.0,0.0,0.0,0.0,0.0,0.0,0.0,0.0,0.0,0.0,0.0,0.0,0.0,0.0,0.0,0.0,0.0,0.0,0.0,0.0,0.0,0.0,0.0,0.0,0.0,0.0,0.0,0.0,0.0,0.0,0.0,0.0,0.0,0.0,0.0,0.0,0.0,0.0,0.0,0.0,0.0,0.0,0.0,0.0,0.0,0.0,0.0,0.0,0.0,0.0,0.0,0.0,0.0,0.0,0.0,0.0,0.0,0.0,0.0,0.0,0.0,0.0,0.0,0.0,-1.3036,-1.3865,-1.4309,-1.4354,-1.44,-1.4366,-1.4357,-1.4253,-1.3748,0.0,0.0,0.0,0.0,0.0,0.0,0.0,0.0,0.0,0.0,0.0,0.0,0.0,0.0,0.0,0.0,0.0,0.0,0.0,0.0,0.0,0.0,0.0,0.0,0.0,0.0,0.0,0.0,0.0,0.0,0.0,0.0,0.0,0.0,0.0,0.0,0.0,0.0,0.0,0.0,0.0,0.0,0.0,0.0,0.0,0.0,0.0,0.0,0.0,0.0,0.0,0.0,0.0,0.0,0.0,0.0,0.0,0.0,0.0,0.0,0.0,0.0,0.0,0.0,0.0,0.0,0.0,0.0,0.0,0.0,0.0,0.0,0.0,0.0,0.0,0.0,0.0,0.0,0.0,0.0,0.0,0.0,0.0,0.0,0.0,0.0,0.0,0.0,0.0,0.0,0.0,0.0,0.0,0.0,0.0,0.0,0.0,0.0,0.0,0.0,0.0,0.0,0.0,0.0,-1.4173,-1.4372,-1.4223,-1.6522,-1.7687,-1.6918,-1.6816,-1.6324,-1.5124,0.0,0.0,0.0,0.0,0.0,0.0,0.0,0.0,0.0,0.0,0.0,0.0,0.0,0.0,0.0,0.0,0.0,0.0,0.0,0.0,0.0,0.0,0.0,0.0,0.0,0.0,0.0,0.0,0.0,0.0,0.0,0.0,0.0,0.0,0.0,0.0,0.0,0.0,0.0,0.0,0.0,0.0,0.0,0.0,0.0,0.0,0.0,0.0,0.0,0.0,0.0,0.0,0.0,0.0,0.0,0.0,0.0,0.0,0.0,0.0,0.0,0.0,0.0,0.0,0.0,0.0,0.0,0.0,0.0,0.0,0.0,0.0,0.0,0.0,0.0,0.0,0.0,0.0,0.0,0.0,0.0,0.0,0.0,0.0,0.0,0.0,0.0,0.0,0.0,0.0,0.0,0.0,0.0,0.0,0.0,0.0,0.0,0.0,0.0,0.0,0.0,0.0,-1.5615,-1.6248,-1.65,-1.6543,-1.8344,-1.9129,-1.8058,-1.7865,-1.7329,-1.6148,0.0,0.0,0.0,0.0,0.0,0.0,0.0,0.0,0.0,0.0,0.0,0.0,0.0,0.0,0.0,0.0,0.0,0.0,0.0,0.0,0.0,0.0,0.0,0.0,0.0,0.0,0.0,0.0,0.0,0.0,0.0,0.0,0.0,0.0,0.0,0.0,0.0,0.0,0.0,0.0,0.0,0.0,0.0,0.0,0.0,0.0,0.0,0.0,0.0,0.0,0.0,0.0,0.0,0.0,0.0,0.0,0.0,0.0,0.0,0.0,0.0,0.0,0.0,0.0,0.0,0.0,0.0,0.0,0.0,0.0,0.0,0.0,0.0,0.0,0.0,0.0,0.0,0.0,0.0,0.0,0.0,0.0,0.0,0.0,0.0,0.0,0.0,0.0,0.0,0.0,0.0,0.0,0.0,0.0,0.0,0.0,0.0,0.0,0.0,0.0,0.0,0.0,-1.7891,-1.9187,-1.968,-1.9709,-1.9788,-1.9338,-1.8231,-1.7935,-1.7455,-1.6196,0.0,0.0,0.0,0.0,0.0,0.0,0.0,0.0,0.0,0.0,0.0,0.0,0.0,0.0,0.0,0.0,0.0,0.0,0.0,0.0,0.0,0.0,0.0,0.0,0.0,0.0,0.0,0.0,0.0,0.0,0.0,0.0,0.0,0.0,0.0,0.0,0.0,0.0,0.0,0.0,0.0,0.0,0.0,0.0,0.0,0.0,0.0,0.0,0.0,0.0,0.0,0.0,0.0,0.0,0.0,0.0,0.0,0.0,0.0,0.0,0.0,0.0,0.0,0.0,0.0,0.0,0.0,0.0,0.0,0.0,0.0,0.0,0.0,0.0,0.0,0.0,0.0,0.0,0.0,0.0,0.0,0.0,0.0,0.0,0.0,0.0,0.0,0.0,0.0,0.0,0.0,0.0,0.0,0.0,0.0,0.0,0.0,0.0,0.0,0.0,0.0,0.0,-1.6811,-1.8783,-1.9754,-1.9817,-1.9732,-1.9486,-1.924,-1.8392,-1.7383,-1.6112,0.0,0.0,0.0,0.0,0.0,0.0,0.0,0.0,0.0,0.0,0.0,0.0,0.0,0.0,0.0,0.0,0.0,0.0,0.0,0.0,0.0,0.0,0.0,0.0,0.0,0.0,0.0,0.0,0.0,0.0,0.0,0.0,0.0,0.0,0.0,0.0,0.0,0.0,0.0,0.0,0.0,0.0,0.0,0.0,0.0,0.0,0.0,0.0,0.0,0.0,0.0,0.0,0.0,0.0,0.0,0.0,0.0,0.0,0.0,0.0,0.0,0.0,0.0,0.0,0.0,0.0,0.0,0.0,0.0,0.0,0.0,0.0,0.0,0.0,0.0,0.0,0.0,0.0,0.0,0.0,0.0,0.0,0.0,0.0,0.0,0.0,0.0,0.0,0.0,0.0,0.0,0.0,0.0,0.0,0.0,0.0,0.0,0.0,0.0,0.0,0.0,0.0,-1.7181,-1.897,-1.9657,-1.961,-1.9695,-1.9657,-1.9275,-1.8431,-1.7463,-1.6622,-1.4833,0.0,0.0,0.0,0.0,0.0,0.0,0.0,0.0,0.0,0.0,0.0,0.0,0.0,0.0,0.0,0.0,0.0,0.0,0.0,0.0,0.0,0.0,0.0,0.0,0.0,0.0,0.0,0.0,0.0,0.0,0.0,0.0,0.0,0.0,0.0,0.0,0.0,0.0,0.0,0.0,0.0,0.0,0.0,0.0,0.0,0.0,0.0,0.0,0.0,0.0,0.0,0.0,0.0,0.0,0.0,0.0,0.0,0.0,0.0,0.0,0.0,0.0,0.0,0.0,0.0,0.0,0.0,0.0,0.0,0.0,0.0,0.0,0.0,0.0,0.0,0.0,0.0,0.0,0.0,0.0,0.0,0.0,0.0,0.0,0.0,0.0,0.0,-1.5889,-1.5038,0.0,0.0,0.0,0.0,0.0,0.0,0.0,0.0,0.0,0.0,0.0,0.0,-1.8118,-1.9363,-1.9732,-1.9798,-1.963,-1.94,-1.9049,-1.8262,-1.7772,-1.7144,-1.6083,-1.4428,0.0,0.0,0.0,0.0,0.0,0.0,0.0,0.0,0.0,0.0,0.0,0.0,0.0,0.0,0.0,0.0,0.0,0.0,0.0,0.0,0.0,0.0,0.0,0.0,0.0,0.0,0.0,0.0,0.0,0.0,0.0,0.0,0.0,0.0,0.0,0.0,0.0,0.0,0.0,0.0,0.0,0.0,0.0,0.0,0.0,0.0,0.0,0.0,0.0,0.0,0.0,0.0,0.0,0.0,0.0,0.0,0.0,0.0,0.0,0.0,0.0,0.0,0.0,0.0,0.0,0.0,0.0,0.0,0.0,0.0,0.0,0.0,0.0,0.0,0.0,0.0,0.0,0.0,0.0,0.0,0.0,0.0,0.0,0.0,-1.7581,-1.8134,-1.8291,-1.7873,0.0,-1.4808,-1.4167,-1.5667,0.0,0.0,0.0,0.0,0.0,0.0,0.0,0.0,-1.8005,-1.9309,-1.9588,-1.9681,-1.9715,-1.9761,-1.9521,-1.8498,-1.7914,-1.7818,-1.7195,-1.5652,-1.3192,-1.2475,0.0,0.0,0.0,0.0,0.0,0.0,0.0,0.0,0.0,0.0,0.0,0.0,0.0,0.0,0.0,0.0,0.0,0.0,0.0,0.0,0.0,0.0,0.0,0.0,0.0,0.0,0.0,0.0,0.0,0.0,0.0,0.0,0.0,0.0,0.0,0.0,0.0,0.0,0.0,0.0,0.0,0.0,0.0,0.0,0.0,0.0,0.0,0.0,0.0,0.0,0.0,0.0,0.0,0.0,0.0,0.0,0.0,0.0,0.0,0.0,0.0,0.0,0.0,0.0,0.0,0.0,0.0,0.0,0.0,0.0,0.0,0.0,0.0,0.0,0.0,0.0,0.0,0.0,0.0,0.0,0.0,0.0,0.0,-1.8712,-1.8508,-1.8136,-1.8079,-1.7443,-1.6682,0.0,-1.3577,-1.1396,-1.0982,0.0,0.0,0.0,0.0,0.0,-1.7851,-1.8722,-1.9221,-1.9761,-1.9796,-1.9602,-1.9633,-1.8518,-1.786,-1.7939,-1.7384,-1.644,-1.4979,-1.4728,-1.3909,0.0,0.0,0.0,0.0,0.0,0.0,0.0,0.0,0.0,0.0,0.0,0.0,0.0,0.0,0.0,0.0,0.0,0.0,0.0,0.0,0.0,0.0,0.0,0.0,0.0,0.0,0.0,0.0,0.0,0.0,0.0,0.0,0.0,0.0,0.0,0.0,0.0,0.0,0.0,0.0,0.0,0.0,0.0,0.0,0.0,0.0,0.0,0.0,0.0,0.0,0.0,0.0,0.0,0.0,0.0,0.0,0.0,0.0,0.0,0.0,0.0,0.0,0.0,0.0,0.0,0.0,0.0,0.0,0.0,0.0,0.0,0.0,-0.0983,-0.6341,0.0,0.0,0.0,0.0,-1.5835,-1.6695,0.0,-1.8171,-1.8621,-1.8431,-1.8462,-1.8538,-1.8625,-1.7851,0.0,-1.4423,-1.3961,-1.3544,0.0,0.0,0.0,0.0,-1.6182,-1.7703,-1.8323,-1.898,-1.949,-1.9546,-1.9407,-1.9462,-1.8477,-1.796,-1.7968,-1.7419,-1.6898,-1.6411,-1.6197,-1.567,-1.4708,0.0,0.0,0.0,0.0,0.0,0.0,0.0,0.0,0.0,0.0,0.0,0.0,0.0,0.0,0.0,0.0,0.0,0.0,0.0,0.0,0.0,0.0,0.0,0.0,0.0,0.0,0.0,0.0,0.0,0.0,0.0,0.0,0.0,0.0,0.0,0.0,0.0,0.0,0.0,0.0,0.0,0.0,0.0,0.0,0.0,0.0,0.0,0.0,0.0,0.0,0.0,0.0,0.0,0.0,0.0,0.0,0.0,0.0,0.0,0.0,0.0,0.0,0.0,0.0,0.0,0.0,0.0,0.0,0.0,0.0,0.0,-0.0,-0.0404,-0.4981,0.0,0.0,-1.4886,-1.6069,-1.6537,-1.6929,-1.7458,-1.8043,-1.8916,-1.9206,-1.8131,-1.7954,-1.7044,0.0,-1.4845,-1.5877,-1.595,0.0,0.0,-1.4348,-1.6052,-1.7077,-1.7882,-1.8406,-1.8879,-1.8788,-1.8926,-1.8891,-1.8823,-1.8335,-1.7893,-1.7895,-1.7338,-1.708,-1.6924,-1.6378,-1.6116,-1.6092,-1.3576,0.0,0.0,0.0,0.0,0.0,0.0,0.0,0.0,0.0,0.0,0.0,0.0,0.0,0.0,0.0,0.0,0.0,0.0,0.0,0.0,0.0,0.0,0.0,0.0,0.0,0.0,0.0,0.0,0.0,0.0,0.0,0.0,0.0,0.0,0.0,0.0,0.0,0.0,0.0,0.0,0.0,0.0,0.0,0.0,0.0,0.0,0.0,0.0,0.0,0.0,0.0,0.0,0.0,0.0,0.0,0.0,0.0,0.0,0.0,0.0,0.0,0.0,0.0,0.0,0.0,0.0,0.0,0.0,0.0,0.0,-0.1534,-0.9612,-1.0694,-1.0246,-1.5054,-1.6344,-1.6571,-1.7175,-1.7629,-1.776,-1.7967,-1.8356,-1.8517,-1.7981,-1.788,-1.75,-1.646,-1.6852,-1.7049,-1.6808,-1.5023,-1.4473,-1.6095,-1.707,-1.7761,-1.7841,-1.7989,-1.8233,-1.8141,-1.8208,-1.8161,-1.8199,-1.7947,-1.7982,-1.7975,-1.7628,-1.7408,-1.7058,-1.6694,-1.6468,-1.611,-1.4843,-1.3507,0.0,0.0,0.0,0.0,0.0,0.0,0.0,0.0,0.0,0.0,0.0,0.0,0.0,0.0,0.0,0.0,0.0,0.0,0.0,0.0,0.0,0.0,0.0,0.0,0.0,0.0,0.0,0.0,0.0,0.0,0.0,0.0,0.0,0.0,0.0,0.0,0.0,0.0,0.0,0.0,0.0,0.0,0.0,0.0,0.0,0.0,0.0,0.0,0.0,0.0,0.0,0.0,0.0,0.0,0.0,0.0,0.0,0.0,0.0,0.0,0.0,0.0,0.0,0.0,0.0,0.0,0.0,0.0,0.0,-0.2282,-1.4685,-1.5478,-1.2979,-1.6768,-1.7516,-1.7283,-1.7629,-1.7894,-1.8111,-1.7981,-1.79,-1.8057,-1.7981,-1.786,-1.7935,-1.788,-1.7925,-1.7858,-1.7466,-1.6728,-1.67,-1.713,-1.7739,-1.7843,-1.7989,-1.7826,-1.7827,-1.7927,-1.7927,-1.7893,-1.7793,-1.7964,-1.7968,-1.7871,-1.765,-1.7341,-1.703,-1.6992,-1.6809,-1.6117,-1.5563,-1.3844,-1.1303,0.0,0.0,0.0,0.0,0.0,0.0,0.0,0.0,0.0,0.0,0.0,0.0,0.0,0.0,0.0,0.0,0.0,0.0,0.0,0.0,0.0,0.0,0.0,0.0,0.0,0.0,0.0,0.0,0.0,0.0,0.0,0.0,0.0,0.0,0.0,0.0,0.0,0.0,0.0,0.0,0.0,0.0,0.0,0.0,0.0,0.0,0.0,0.0,0.0,0.0,0.0,0.0,0.0,0.0,0.0,0.0,0.0,0.0,0.0,0.0,0.0,0.0,0.0,0.0,0.0,0.0,0.0,0.0,-0.2117,-1.393,-1.804,-1.8128,-1.8088,-1.7901,-1.8057,-1.7914,-1.7989,-1.8091,-1.8091,-1.8213,-1.8054,-1.7893,-1.786,-1.7813,-1.7894,-1.7978,-1.7834,-1.7899,-1.7433,-1.7236,-1.7711,-1.784,0.0,-1.7932,-1.7954,-1.786,-1.7846,-1.7826,-1.7826,-1.7826,-1.7896,-1.7847,-1.7801,-1.7199,-1.6904,-1.6904,-1.6882,-1.6567,-1.601,-1.5409,-1.3006,-0.8927,0.0,0.0,0.0,0.0,0.0,0.0,0.0,0.0,0.0,0.0,0.0,0.0,0.0,0.0,0.0,0.0,0.0,0.0,0.0,0.0,0.0,0.0,0.0,0.0,0.0,0.0,0.0,0.0,0.0,0.0,0.0,0.0,0.0,0.0,0.0,0.0,0.0,0.0,0.0,0.0,0.0,0.0,0.0,0.0,0.0,0.0,0.0,0.0,0.0,0.0,0.0,0.0,0.0,0.0,0.0,0.0,0.0,0.0,0.0,0.0,0.0,0.0,0.0,0.0,0.0,0.0,0.0,0.0,-0.1444,-0.9169,-1.4454,-1.8059,-1.8104,-1.7955,-1.7935,-1.8002,-1.8057,-1.8124,-1.8233,-1.8287,-1.828,-1.8124,-1.8091,-1.7813,-1.7894,-1.7826,-1.7978,-1.7841,-1.767,-1.765,-1.7829,0.0,0.0,-1.7636,-1.7978,-1.793,-1.7932,-1.7882,-1.7882,-1.7882,-1.7869,-1.6852,-1.4127,-1.5551,-1.5884,-1.5112,-1.4963,-1.4287,-1.2818,-1.2191,-1.1405,0.0,0.0,0.0,0.0,0.0,0.0,0.0,0.0,0.0,0.0,0.0,0.0,0.0,0.0,0.0,0.0,0.0,0.0,0.0,0.0,0.0,0.0,0.0,0.0,0.0,0.0,0.0,0.0,0.0,0.0,0.0,0.0,0.0,0.0,0.0,0.0,0.0,0.0,0.0,0.0,0.0,0.0,0.0,0.0,0.0,0.0,0.0,0.0,0.0,0.0,0.0,0.0,0.0,0.0,0.0,0.0,0.0,0.0,0.0,0.0,0.0,0.0,0.0,0.0,0.0,0.0,0.0,0.0,0.0,-0.0722,-0.4011,-1.1204,-1.7856,-1.8054,-1.8145,-1.8091,-1.8158,-1.8233,-1.8301,-1.8389,-1.8464,-1.8464,-1.8301,-1.8233,-1.7914,-1.7982,0.0,0.0,-1.7978,-1.7812,-1.7978,-1.7864,-1.675,-1.6413,0.0,-1.793,-1.7964,-1.7829,-1.6908,-1.646,-1.646,-1.7217,0.0,0.0,0.0,-1.5202,-1.506,-1.4494,0.0,0.0,0.0,0.0,0.0,0.0,0.0,0.0,-1.0441,-1.0608,0.0,0.0,0.0,0.0,0.0,0.0,0.0,0.0,0.0,0.0,0.0,0.0,0.0,0.0,0.0,0.0,0.0,0.0,0.0,0.0,0.0,0.0,0.0,0.0,0.0,0.0,0.0,0.0,0.0,0.0,0.0,0.0,0.0,0.0,0.0,0.0,0.0,0.0,0.0,0.0,0.0,0.0,0.0,0.0,0.0,0.0,0.0,0.0,0.0,0.0,0.0,0.0,0.0,0.0,0.0,0.0,0.0,0.0,0.0,0.0,0.0,0.0,0.0,0.0,0.0,-0.7455,-1.6193,-1.725,-1.7921,-1.8161,-1.8375,-1.8443,-1.8531,-1.8565,-1.8674,-1.8728,-1.8565,-1.8423,-1.8267,-1.7893,-1.7968,-1.786,-1.786,-1.786,-1.7909,-1.7819,-1.7975,0.0,-1.7805,-1.7982,-1.7846,-1.7792,0.0,0.0,-1.4629,-1.6694,-1.7376,-1.6282,-1.5178,-1.4841,-1.5911,-1.4923,-1.4224,-1.4266,-1.391,-1.3597,-1.3626,-1.3646,-1.3934,-1.443,-1.3303,-1.3191,0.0,0.0,0.0,0.0,0.0,0.0,0.0,0.0,0.0,0.0,0.0,0.0,0.0,0.0,0.0,0.0,0.0,0.0,0.0,0.0,0.0,0.0,0.0,0.0,0.0,0.0,0.0,0.0,0.0,0.0,0.0,0.0,0.0,0.0,0.0,0.0,0.0,0.0,0.0,0.0,0.0,0.0,0.0,0.0,0.0,0.0,0.0,0.0,0.0,0.0,0.0,0.0,0.0,0.0,0.0,0.0,0.0,0.0,0.0,0.0,0.0,0.0,0.0,0.0,0.0,-0.164,0.0,-1.1478,-1.5823,-1.843,-1.862,-1.8599,-1.8599,-1.885,-1.883,-1.8728,-1.8565,-1.843,-1.8267,-1.79,-1.7968,-1.786,-1.786,-1.786,-1.7826,-1.793,-1.7792,-1.7826,-1.793,-1.7792,-1.7944,-1.7808,-1.7538,-1.7103,-1.7103,-1.7566,-1.7561,-1.6795,-1.6212,-1.5502,-1.476,-1.4329,-1.4222,-1.4375,-1.4745,-1.4916,-1.4882,-1.4812,-1.4858,-1.4976,-1.5333,-1.524,0.0,0.0,0.0,0.0,0.0,0.0,0.0,0.0,0.0,0.0,0.0,0.0,0.0,0.0,0.0,0.0,0.0,0.0,0.0,0.0,0.0,0.0,0.0,0.0,0.0,0.0,0.0,0.0,0.0,0.0,0.0,0.0,0.0,0.0,0.0,0.0,0.0,0.0,0.0,0.0,0.0,0.0,0.0,0.0,0.0,0.0,0.0,0.0,0.0,0.0,0.0,0.0,0.0,0.0,0.0,0.0,0.0,0.0,0.0,0.0,0.0,0.0,0.0,0.0,0.0,0.0,-0.1407,-0.8815,-1.4632,-1.8674,-1.8742,-1.8708,-1.8687,-1.883,-1.8816,-1.8742,-1.8654,-1.8531,-1.8389,-1.8001,-1.807,-1.7948,-1.788,-1.786,-1.786,-1.786,-1.786,-1.786,-1.786,-1.786,-1.7812,-1.7875,-1.81,-1.8347,-1.8431,-1.8079,-1.7572,-1.6985,-1.6762,-1.6205,-1.5777,-1.5566,-1.5656,-1.5635,-1.6029,-1.6036,-1.6036,-1.6112,-1.6103,-1.6178,-1.6412,-1.6394,0.0,0.0,0.0,0.0,0.0,0.0,0.0,0.0,0.0,0.0,0.0,0.0,0.0,0.0,0.0,0.0,0.0,0.0,0.0,0.0,0.0,0.0,0.0,0.0,0.0,0.0,0.0,0.0,0.0,0.0,0.0,0.0,0.0,0.0,0.0,0.0,0.0,0.0,0.0,0.0,0.0,0.0,0.0,0.0,0.0,0.0,0.0,0.0,0.0,0.0,0.0,0.0,0.0,0.0,0.0,0.0,0.0,0.0,0.0,0.0,0.0,0.0,0.0,0.0,0.0,0.0,-0.1412,-0.751,-1.3874,-1.8884,-1.8816,-1.8782,-1.8762,-1.8796,-1.8782,-1.8762,-1.8762,-1.864,-1.8498,-1.8389,-1.8001,-1.786,-1.7968,-1.7948,-1.7935,-1.788,-1.786,-1.786,-1.786,-1.788,-1.7968,-1.7893,-1.8397,-1.8698,-1.8823,-1.8184,-1.7589,-1.7123,-1.7147,-1.7071,-1.7165,-1.712,-1.6985,-1.6985,-1.6985,-1.7042,-1.6968,-1.6968,-1.7094,-1.6913,-1.7092,-1.6946,1.2644,1.1828,0.9199,0.1833,0.0,0.0,0.0,0.0,0.0,0.0,0.0,0.0,0.0,0.0,0.0,0.0,0.0,0.0,0.0,0.0,0.0,0.0,0.0,0.0,0.0,0.0,0.0,0.0,0.0,0.0,0.0,0.0,0.0,0.0,0.0,0.0,0.0,0.0,0.0,0.0,0.0,0.0,0.0,0.0,0.0,0.0,0.0,0.0,0.0,0.0,0.0,0.0,0.0,0.0,0.0,0.0,0.0,0.0,0.0,0.0,0.0,0.0,0.0,0.0,0.0,0.0,-0.1412,-0.751,-1.3874,-1.8918,-1.8952,-1.8871,-1.8796,-1.8938,-1.8871,-1.8762,-1.8762,-1.864,-1.8531,-1.8511,-1.8389,-1.828,-1.8267,-1.8034,-1.7947,-1.7894,-1.786,-1.786,-1.786,-1.7982,-1.7893,-1.7821,-1.8409,-1.8733,-1.8754,-1.8321,-1.7826,-1.7792,-1.7717,-1.776,-1.7739,-1.7263,-1.7023,-1.7023,-1.7023,-1.7029,-1.7049,-1.7049,-1.7069,-1.7096,-1.6962,-1.6664,1.0378,1.0308,0.0,0.0,0.334,0.0,0.0,0.0,0.0,0.0,0.0,0.0,0.0,0.0,0.0,0.0,0.0,0.0,0.0,0.0,0.0,0.0,0.0,0.0,0.0,0.0,0.0,0.0,0.0,0.0,0.0,0.0,0.0,0.0,0.0,0.0,0.0,0.0,0.0,0.0,0.0,0.0,0.0,0.0,0.0,0.0,0.0,0.0,0.0,0.0,0.0,0.0,0.0,0.0,0.0,0.0,0.0,0.0,0.0,0.0,0.0,0.0,0.0,0.0,0.0,-0.5221,-1.0845,-0.9624,-1.419,-1.9115,-1.9115,-1.9203,-1.9257,-1.9149,-1.9203,-1.9183,-1.883,-1.885,-1.885,-1.8586,-1.8477,-1.8409,-1.8342,-1.8321,-1.828,-1.8376,-1.8124,-1.7893,-1.7893,-1.7947,-1.8054,-1.8423,-1.8586,-1.8871,-1.8768,-1.852,-1.8321,-1.8002,-1.7792,-1.7861,-1.8003,-1.7561,-1.7514,-1.7426,-1.7426,-1.7426,-1.7426,-1.7426,-1.7426,-1.7419,-1.7573,-1.7372,0.5918,0.0,0.0,1.0784,0.5658,0.0,0.0,0.0,0.0,0.0,0.0,0.0,0.0,0.0,0.0,0.0,0.0,0.0,0.0,0.0,0.0,0.0,0.0,0.0,0.0,0.0,0.0,0.0,0.0,0.0,0.0,0.0,0.0,0.0,0.0,0.0,0.0,0.0,0.0,0.0,0.0,0.0,0.0,0.0,0.0,0.0,0.0,0.0,0.0,0.0,0.0,0.0,0.0,0.0,0.0,0.0,0.0,0.0,0.0,0.0,0.0,0.0,0.0,0.0,0.0,-0.8892,-1.8187,-1.3576,-1.5818,-1.9345,-1.9325,-1.9501,-1.961,-1.9379,-1.9501,-1.9522,-1.8993,-1.9047,-1.9081,-1.8674,-1.8599,-1.8565,-1.8692,-1.8443,-1.8443,-1.8678,-1.8443,-1.8175,-1.8108,-1.8121,-1.8423,-1.8823,-1.8694,-1.8708,-1.8836,-1.8699,-1.8568,-1.7981,-1.7847,-1.7948,-1.7846,-1.7792,-1.7944,-1.7834,-1.7792,-1.7989,-1.7989,-1.7989,-1.7989,-1.7989,-1.7989,-1.7827,0.0,0.0,0.2089,0.8968,0.5343,0.0,0.0,0.0,0.0,0.0,0.0,0.0,0.0,0.0,0.0,0.0,0.0,0.0,0.0,0.0,0.0,0.0,0.0,0.0,0.0,0.0,0.0,0.0,0.0,0.0,0.0,0.0,0.0,0.0,0.0,0.0,0.0,0.0,0.0,0.0,0.0,0.0,0.0,0.0,0.0,0.0,0.0,0.0,0.0,0.0,0.0,0.0,0.0,0.0,0.0,0.0,0.0,0.0,0.0,0.0,0.0,0.0,0.0,0.0,0.0,-0.9274,-1.9657,-1.9495,-1.9637,-1.9763,-1.963,-1.9664,-1.9664,-1.9644,-1.9664,-1.9576,-1.9257,-1.9203,-1.9115,-1.8816,-1.8762,-1.8762,-1.8742,-1.8742,-1.8742,-1.8749,-1.8742,-1.8871,-1.8823,-1.8685,-1.8823,-1.8749,-1.8762,-1.8762,-1.8762,-1.8857,-1.8531,-1.804,-1.7921,-1.7841,-1.7841,-1.7927,-1.7847,-1.7847,-1.7935,-1.7846,-1.7846,-1.7846,-1.7846,-1.7846,-1.7846,-1.7846,0.0,0.0,0.0664,0.3055,0.1721,0.0,0.0,0.0,0.0,0.0,0.0,0.0,0.0,0.0,0.0,0.0,0.0,0.0,0.0,0.0,0.0,0.0,0.0,0.0,0.0,0.0,0.0,0.0,0.0,0.0,0.0,0.0,0.0,0.0,0.0,0.0,0.0,0.0,0.0,0.0,0.0,0.0,0.0,0.0,0.0,0.0,0.0,0.0,0.0,0.0,0.0,0.0,0.0,0.0,0.0,0.0,0.0,0.0,0.0,0.0,0.0,0.0,0.0,0.0,0.0,-0.3206,-0.8585,-1.7429,-2.0052,-1.9942,-1.9963,-2.0098,-2.0187,-1.9997,-2.0098,-2.0085,-1.9481,-1.9434,-1.94,-1.8993,-1.883,-1.8762,-1.8762,-1.8762,-1.8762,-1.8762,-1.8762,-1.8728,-1.8857,-1.8891,-1.8708,-1.8762,-1.8762,-1.8762,-1.8762,-1.8857,-1.8768,-1.8531,-1.8396,-1.8555,-1.8555,-1.85,-1.8253,-1.8014,-1.796,-1.788,-1.7793,-1.7793,-1.7968,-1.786,-1.786,-1.786,0.9836,0.3789,0.0,0.0,0.0,0.0,0.0,0.0,0.0,0.0,0.0,0.0,0.0,0.0,0.0,0.0,0.0,0.0,0.0,0.0,0.0,0.0,0.0,0.0,0.0,0.0,0.0,0.0,0.0,0.0,0.0,0.0,0.0,0.0,0.0,0.0,0.0,0.0,0.0,0.0,0.0,0.0,0.0,0.0,0.0,0.0,0.0,0.0,0.0,0.0,0.0,0.0,0.0,0.0,0.0,0.0,0.0,0.0,0.0,0.0,0.0,0.0,0.0,0.0,0.0,0.0,-0.2239,-1.3434,-1.8312,-2.0004,-2.0261,-2.0397,-2.0485,-2.0241,-2.0329,-2.0295,-1.9644,-1.959,-1.9522,-1.9081,-1.8905,-1.883,-1.8782,-1.885,-1.8952,-1.9061,-1.8838,-1.8764,-1.8796,-1.8762,-1.8762,-1.8762,-1.8762,-1.8762,-1.8762,-1.8905,-1.8857,-1.8857,-1.8768,-1.872,-1.872,-1.8893,-1.8623,-1.8161,-1.8108,-1.8267,-1.8179,-1.7947,-1.7893,-1.7793,-1.7793,-1.7793,2.0714,1.096,0.1002,0.0254,0.0,0.0,0.0,0.0,0.0,0.0,0.0,0.0,0.0,0.0,0.0,0.0,0.0,0.0,0.0,0.0,0.0,0.0,0.0,0.0,0.0,0.0,0.0,0.0,0.0,0.0,0.0,0.0,0.0,0.0,0.0,0.0,0.0,0.0,0.0,0.0,0.0,0.0,0.0,0.0,0.0,0.0,0.0,0.0,0.0,0.0,0.0,0.0,0.0,0.0,0.0,0.0,0.0,0.0,0.0,0.0,0.0,0.0,0.0,0.0,0.0,0.0,-0.1529,-0.8452,-1.5093,-2.0178,-2.0519,-2.0539,-2.0505,-2.0363,-2.0329,-2.0207,-1.9766,-1.9664,-1.9535,-1.9094,-1.9006,-1.8959,-1.8816,-1.9027,-1.9305,-1.9361,-1.9158,-1.8953,-1.8884,-1.8816,-1.8816,-1.8816,-1.8816,-1.8796,-1.8782,-1.8782,-1.8782,-1.8762,-1.8762,-1.8762,-1.8762,-1.8857,-1.8788,-1.8788,-1.8879,-1.8809,-1.8809,-1.8335,-1.7854,-1.7854,-1.7854,-1.7854,2.1338,1.8454,1.2866,0.266,0.0,0.0,0.0,0.0,0.0,0.0,0.0,0.0,0.0,0.0,0.0,0.0,0.0,0.0,0.0,0.0,0.0,0.0,0.0,0.0,0.0,0.0,0.0,0.0,0.0,0.0,0.0,0.0,0.0,0.0,0.0,0.0,0.0,0.0,0.0,0.0,0.0,0.0,0.0,0.0,0.0,0.0,0.0,0.0,0.0,0.0,0.0,0.0,0.0,0.0,0.0,0.0,0.0,0.0,0.0,0.0,0.0,0.0,0.0,0.0,0.0,0.0,-0.1541,-0.8416,-1.5108,-2.0352,-2.056,-2.0539,-2.0505,-2.0363,-2.0329,-2.0241,-1.9888,-1.9732,-1.959,-1.9359,-1.9217,-1.9169,-1.9257,-1.9325,-1.9434,-1.9624,-1.9657,-1.9361,-1.8953,-1.8692,-1.8692,-1.8692,-1.8692,-1.8847,-1.8865,-1.8851,-1.8751,-1.8782,-1.8762,-1.8762,-1.8762,-1.8728,-1.8708,-1.8708,-1.8905,-1.8823,-1.872,-1.8713,-1.8658,-1.8555,-1.8555,-1.8555,2.0672,2.1014,1.8902,1.1075,0.459,0.0,0.0,0.0,0.0,0.0,0.0,0.0,0.0,0.0,0.0,0.0,0.0,0.0,0.0,0.0,0.0,0.0,0.0,0.0,0.0,0.0,0.0,0.0,0.0,0.0,0.0,0.0,0.0,0.0,0.0,0.0,0.0,0.0,0.0,0.0,0.0,0.0,0.0,0.0,0.0,0.0,0.0,0.0,0.0,0.0,0.0,0.0,0.0,0.0,0.0,0.0,0.0,0.0,0.0,0.0,0.0,0.0,0.0,0.0,0.0,0.0,-0.0773,-0.4605,-1.2826,-2.0419,-2.0594,-2.056,-2.0485,-2.0275,-2.0227,-2.0153,-1.9841,-1.9712,-1.961,-1.9468,-1.9359,-1.9379,-1.959,-1.9678,-1.98,-2.001,-2.0051,-2.0051,-1.9541,-1.9568,-1.9657,-1.9657,-1.9657,-1.959,-1.966,-1.9146,-1.8833,-1.8681,-1.8784,-1.8717,-1.8717,-1.883,-1.8762,-1.8762,-1.8762,-1.8728,-1.8871,-1.8871,-1.8823,-1.8754,-1.8754,-1.8754,1.8411,1.9754,2.1083,2.0721,1.0228,0.0,0.0,0.0,0.0,0.0,0.0,0.0,0.0,0.0,0.0,0.0,0.0,0.0,0.0,0.0,0.0,0.0,0.0,0.0,0.0,0.0,0.0,0.0,0.0,0.0,0.0,0.0,0.0,0.0,0.0,0.0,0.0,0.0,0.0,0.0,0.0,0.0,0.0,0.0,0.0,0.0,0.0,0.0,0.0,0.0,0.0,0.0,0.0,0.0,0.0,0.0,0.0,0.0,0.0,0.0,0.0,0.0,0.0,0.0,0.0,0.0,0.0,0.0,-0.9262,-1.9369,-2.0379,-2.0573,-2.0438,-2.0173,-2.0085,-1.9997,-1.9712,-1.9664,-1.9624,-1.9522,-1.9481,-1.959,-1.9888,-2.0051,-2.0227,-2.0505,-2.0539,-2.0539,-2.0539,-2.0609,-2.0541,-2.0541,-2.0541,-2.052,-2.0485,-1.9712,-1.8947,-1.8914,-1.8919,-1.8992,-1.8714,-1.8751,-1.885,-1.8762,-1.8796,-1.8796,-1.8762,-1.8762,-1.8762,-1.8762,-1.8762,-1.8762,1.1468,1.605,2.0756,2.1804,1.1007,0.0,0.0,0.0,0.0,0.0,0.0,0.0,0.0,0.0,0.0,0.0,0.0,0.0,0.0,0.0,0.0,0.0,0.0,0.0,0.0,0.0,0.0,0.0,0.0,0.0,0.0,0.0,0.0,0.0,0.0,0.0,0.0,0.0,0.0,0.0,0.0,0.0,0.0,0.0,0.0,0.0,0.0,0.0,0.0,0.0,0.0,0.0,0.0,0.0,0.0,0.0,0.0,0.0,0.0,0.0,0.0,0.0,0.0,0.0,0.0,0.0,0.0,0.0,-0.5911,-1.3363,-1.9069,-2.0505,-2.0329,-2.0139,-1.9997,-1.9875,-1.9698,-1.9664,-1.9698,-1.9786,-1.98,-1.9888,-2.0207,-2.0275,-2.0349,-2.0526,-2.0539,-2.0539,-2.0539,-2.0458,-2.039,-2.039,-2.039,-2.0553,-2.0561,-2.0285,-2.0182,-2.0178,-2.0109,-1.9715,-1.8734,-1.89,-1.8781,-1.8782,-1.8764,-1.8764,-1.8762,-1.8762,-1.8762,-1.8762,-1.8762,-1.8762,0.4612,0.7155,1.0025,1.0652,0.5235,0.0,0.0,0.0,0.0,0.0,0.0,0.0,0.0,0.0,0.0,0.0,0.0,0.0,0.0,0.0,0.0,0.0,0.0,0.0,0.0,0.0,0.0,0.0,0.0,0.0,0.0,0.0,0.0,0.0,0.0,0.0,0.0,0.0,0.0,0.0,0.0,0.0,0.0,0.0,0.0,0.0,0.0,0.0,0.0,0.0,0.0,0.0,0.0,0.0,0.0,0.0,0.0,0.0,0.0,0.0,0.0,0.0,0.0,0.0,0.0,0.0,0.0,0.0,-0.4885,-1.1811,-1.8485,-2.0178,-2.0275,-2.0031,-1.9875,-1.9752,-1.9678,-1.9664,-1.9698,-1.9841,-1.9942,-2.0064,-2.0295,-2.0383,-2.0471,-2.0526,-2.0539,-2.0539,-2.0539,-2.0539,-2.0539,-2.0539,-2.0539,-2.0492,-2.0601,-2.0587,-2.0532,-2.0395,-2.0491,-2.0324,-1.9678,-1.9158,-1.9025,-1.9727,-1.9113,-1.888,-1.8747,-1.8747,-1.8747,-1.8747,-1.8747,-1.8747,0.0,0.0,0.0,0.0,0.0,0.0,0.0,0.0,0.0,0.0,0.0,0.0,0.0,0.0,0.0,0.0,0.0,0.0,0.0,0.0,0.0,0.0,0.0,0.0,0.0,0.0,0.0,0.0,0.0,0.0,0.0,0.0,0.0,0.0,0.0,0.0,0.0,0.0,0.0,0.0,0.0,0.0,0.0,0.0,0.0,0.0,0.0,0.0,0.0,0.0,0.0,0.0,0.0,0.0,0.0,0.0,0.0,0.0,0.0,0.0,0.0,0.0,0.0,0.0,0.0,0.0,0.0,0.0,-0.6194,-1.366,-1.9038,-2.0211,-2.0254,-1.9908,-1.9752,-1.9678,-1.9752,-1.9732,-1.9766,-1.9976,-2.0085,-2.0207,-2.0349,-2.0471,-2.056,-2.0594,-2.0594,-2.0594,-2.0594,-2.0594,-2.0594,-2.0594,-2.056,-2.0539,-2.0539,-2.0539,-2.0539,-2.0539,-2.0587,-2.0429,-2.0609,-1.9689,-1.9535,-2.0415,-1.9725,-1.9224,-1.9158,-1.9158,-1.9158,-1.9158,-1.9158,-1.9158,0.0,0.0,0.0,0.0,0.0,0.0,0.0,0.0,0.0,0.0,0.0,0.0,0.0,0.0,0.0,0.0,0.0,0.0,0.0,0.0,0.0,0.0,0.0,0.0,0.0,0.0,0.0,0.0,0.0,0.0,0.0,0.0,0.0,0.0,0.0,0.0,0.0,0.0,0.0,0.0,0.0,0.0,0.0,0.0,0.0,0.0,0.0,0.0,0.0,0.0,0.0,0.0,0.0,0.0,0.0,0.0,0.0,0.0,0.0,0.0,0.0,0.0,0.0,0.0,0.0,0.0,0.0,0.0,-0.9651,-2.0162,-2.0647,-2.0386,-2.0017,-1.98,-1.9678,-1.9732,-1.9997,-1.9942,-1.9976,-2.0397,-2.0383,-2.0349,-2.0485,-2.0539,-2.0594,-2.0736,-2.0756,-2.0756,-2.0756,-2.0493,-2.0493,-2.0756,-2.0627,-2.0539,-2.0539,-2.0539,-2.0539,-2.0539,-2.0526,-2.039,-2.0381,-2.0336,-2.0464,-2.0436,-2.0436,-2.0429,-2.0415,-2.0415,-2.0415,-2.0415,-2.0415,-2.0415,0.0,0.0,0.0,0.0,0.0,0.0,0.0,0.0,0.0,0.0,0.0,0.0,0.0,0.0,0.0,0.0,0.0,0.0,0.0,0.0,0.0,0.0,0.0,0.0,0.0,0.0,0.0,0.0,0.0,0.0,0.0,0.0,0.0,0.0,0.0,0.0,0.0,0.0,0.0,0.0,0.0,0.0,0.0,0.0,0.0,0.0,0.0,0.0,0.0,0.0,0.0,0.0,0.0,0.0,0.0,0.0,0.0,0.0,0.0,0.0,0.0,0.0,0.0,0.0,0.0,0.0,0.0,0.0,-0.3935,-1.0195,-1.8674,-2.0349,-1.9689,-1.9746,-1.9678,-1.9698,-1.982,-1.9854,-1.9963,-2.0227,-2.0383,-2.0505,-2.0648,-2.0756,-2.0845,-2.0892,-2.0912,-2.0878,-2.079,-2.0858,-2.0872,-2.079,-2.0627,-2.0573,-2.0406,-2.0594,-2.0539,-2.0539,-2.0539,-2.0492,-2.0622,-2.0471,-2.0438,-2.045,-2.0567,-2.0567,-2.045,-2.045,-2.045,-2.045,-2.045,-2.045,0.0,0.0,0.0,0.0,0.0,0.0,0.0,0.0,0.0,0.0,0.0,0.0,0.0,0.0,0.0,0.0,0.0,0.0,0.0,0.0,0.0,0.0,0.0,0.0,0.0,0.0,0.0,0.0,0.0,0.0,0.0,0.0,0.0,0.0,0.0,0.0,0.0,0.0,0.0,0.0,0.0,0.0,0.0,0.0,0.0,0.0,0.0,0.0,0.0,0.0,0.0,0.0,0.0,0.0,0.0,0.0,0.0,0.0,0.0,0.0,0.0,0.0,0.0,0.0,0.0,0.0,0.0,0.0,0.0,-0.2351,-1.2151,-1.6003,-1.747,-1.9482,-1.9729,-1.9956,-2.0051,-2.0105,-2.0193,-2.0383,-2.056,-2.0716,-2.0824,-2.0933,-2.1021,-2.1055,-2.1068,-2.1021,-2.0912,-2.1001,-2.1021,-2.0912,-2.0716,-2.0648,-2.0493,-2.0453,-2.0627,-2.0539,-2.0573,-2.0594,-2.0539,-2.0539,-2.0539,-2.0539,-2.0539,-2.0539,-2.0539,-2.0539,-2.0539,-2.0539,-2.0539,-2.0539,0.0,0.0,0.0,0.0,0.0,0.0,0.0,0.0,0.0,0.0,0.0,0.0,0.0,0.0,0.0,0.0,0.0,0.0,0.0,0.0,0.0,0.0,0.0,0.0,0.0,0.0,0.0,0.0,0.0,0.0,0.0,0.0,0.0,0.0,0.0,0.0,0.0,0.0,0.0,0.0,0.0,0.0,0.0,0.0,0.0,0.0,0.0,0.0,0.0,0.0,0.0,0.0,0.0,0.0,0.0,0.0,0.0,0.0,0.0,0.0,0.0,0.0,0.0,0.0,0.0,0.0,0.0,0.0,0.0,-0.0,-0.0262,-0.5451,-1.2331,-1.8789,-2.009,-2.0419,-2.0926,-2.0858,-2.0845,-2.1143,-2.1089,-2.1001,-2.1001,-2.1001,-2.1055,-2.1197,-2.1211,-2.1211,-2.1211,-2.1211,-2.1211,-2.1211,-2.0946,-2.077,-2.0506,-2.0381,-2.0593,-2.056,-2.0419,-2.0439,-2.0539,-2.0539,-2.0539,-2.0539,-2.0539,-2.0539,-2.0539,-2.0539,-2.0539,-2.0539,-2.0539,-2.0539,0.0,0.0,0.0,0.0,0.0,0.0,0.0,0.0,0.0,0.0,0.0,0.0,0.0,0.0,0.0,0.0,0.0,0.0,0.0,0.0,0.0,0.0,0.0,0.0,0.0,0.0,0.0,0.0,0.0,0.0,0.0,0.0,0.0,0.0,0.0,0.0,0.0,0.0,0.0,0.0,0.0,0.0,0.0,0.0,0.0,0.0,0.0,0.0,0.0,0.0,0.0,0.0,0.0,0.0,0.0,0.0,0.0,0.0,0.0,0.0,0.0,0.0,0.0,0.0,0.0,0.0,0.0,0.0,0.0,0.0,0.0,-0.1794,-0.3804,-0.5895,-1.3646,-2.0453,-2.0526,-2.058,-2.0647,-2.0734,-2.0855,-2.0948,-2.0948,-2.1265,-2.1319,-2.1367,-2.1367,-2.1333,-2.1231,-2.1299,-2.1333,-2.1231,-2.1231,-2.1143,-2.0946,-2.0878,-2.0811,-2.1228,-2.0736,-2.0486,-2.0439,-2.0594,-2.0539,-2.0539,-2.0539,-2.0539,-2.0539,-2.0539,-2.0539,-2.0539,-2.0539,-2.0232,0.0,0.0,0.0,0.0,0.0,0.0,0.0,0.0,0.0,0.0,0.0,0.0,0.0,0.0,0.0,0.0,0.0,0.0,0.0,0.0,0.0,0.0,0.0,0.0,0.0,0.0,0.0,0.0,0.0,0.0,0.0,0.0,0.0,0.0,0.0,0.0,0.0,0.0,0.0,0.0,0.0,0.0,0.0,0.0,0.0,0.0,0.0,0.0,0.0,0.0,0.0,0.0,0.0,0.0,0.0,0.0,0.0,0.0,0.0,0.0,0.0,0.0,0.0,0.0,0.0,0.0,0.0,0.0,0.0,0.0,0.0,0.0,0.0,0.0,-0.6508,-1.3522,-1.6235,-1.6837,-1.6875,-1.6875,-1.6978,-1.8141,-2.0838,-2.1435,-2.1455,-2.1441,-2.1441,-2.1408,-2.1319,-2.1387,-2.1408,-2.1299,-2.1333,-2.1285,-2.1089,-2.1055,-2.0987,-2.113,-2.0912,-2.0647,-2.0593,-2.0506,-2.0453,-2.0453,-2.0406,-2.0627,-2.0627,-2.0573,-2.0539,-2.0539,-2.0492,-2.0431,0.0,0.0,0.0,0.0,0.0,0.0,0.0,0.0,0.0,0.0,0.0,0.0,0.0,0.0,0.0,0.0,0.0,0.0,0.0,0.0,0.0,0.0,0.0,0.0,0.0,0.0,0.0,0.0,0.0,0.0,0.0,0.0,0.0,0.0,0.0,0.0,0.0,0.0,0.0,0.0,0.0,0.0,0.0,0.0,0.0,0.0,0.0,0.0,0.0,0.0,0.0,0.0,0.0,0.0,0.0,0.0,0.0,0.0,0.0,0.0,0.0,0.0,0.0,0.0,0.0,0.0,0.0,0.0,0.0,0.0,0.0,0.0,0.0,0.0,0.0,-0.1848,-0.8551,-0.9919,-0.9919,-0.9919,-0.9919,-1.2065,-1.8807,-2.0704,-2.1509,-2.1455,-2.1441,-2.1441,-2.1441,-2.1441,-2.1441,-2.1441,-2.1319,-2.1231,-2.1231,-2.1082,-2.1029,-2.1034,-2.1143,-2.1157,-2.0487,-2.0467,-2.0467,-2.0454,-2.0573,-2.0486,-2.0486,-2.0607,-2.0539,-2.0539,-2.0404,-2.0404,0.0,0.0,0.0,0.0,0.0,0.0,0.0,0.0,0.0,0.0,0.0,0.0,0.0,0.0,0.0,0.0,0.0,0.0,0.0,0.0,0.0,0.0,0.0,0.0,0.0,0.0,0.0,0.0,0.0,0.0,0.0,0.0,0.0,0.0,0.0,0.0,0.0,0.0,0.0,0.0,0.0,0.0,0.0,0.0,0.0,0.0,0.0,0.0,0.0,0.0,0.0,0.0,0.0,0.0,0.0,0.0,0.0,0.0,0.0,0.0,0.0,0.0,0.0,0.0,0.0,0.0,0.0,0.0,0.0,0.0,0.0,0.0,0.0,0.0,0.0,-0.0536,-0.215,-0.2421,-0.2421,-0.2421,-0.2417,-0.295,-0.4825,-1.4237,-2.129,-2.1509,-2.1509,-2.1489,-2.1441,-2.1441,-2.1441,-2.1441,-2.1408,-2.1387,-2.1387,-2.1313,-2.1224,-2.1157,-2.1197,-2.1459,-2.1163,-2.1315,-2.1212,-2.1096,-2.0668,-2.0594,-2.0594,-2.056,-2.0539,-2.0539,-2.0404,-2.0601,0.0,0.0,0.0,0.0,0.0,0.0,0.0,0.0,0.0,0.0,0.0,0.0,0.0,0.0,0.0,0.0,0.0,0.0,0.0,0.0,0.0,0.0,0.0,0.0,0.0,0.0,0.0,0.0,0.0,0.0,0.0,0.0,0.0,0.0,0.0,0.0,0.0,0.0,0.0,0.0,0.0,0.0,0.0,0.0,0.0,0.0,0.0,0.0,0.0,0.0,0.0,0.0,0.0,0.0,0.0,0.0,0.0,0.0,0.0,0.0,0.0,0.0,0.0,0.0,0.0,0.0,0.0,0.0,0.0,0.0,0.0,0.0,0.0,0.0,0.0,0.0,0.0,0.0,0.0,0.0,0.0,0.0,0.0,-0.6436,-1.2615,-1.6102,-1.9353,-2.1509,-2.1489,-2.1455,-2.1441,-2.1441,-2.1441,-2.1441,-2.1441,-2.1367,-2.1319,-2.1313,-2.1319,-2.1319,-2.1319,-2.1514,-2.137,-2.0878,-2.0716,-2.0607,-2.0539,-2.0539,-2.0539,-2.0539,-2.0471,-2.0438,0.0,0.0,0.0,0.0,0.0,0.0,0.0,0.0,0.0,0.0,0.0,0.0,0.0,0.0,0.0,0.0,0.0,0.0,0.0,0.0,0.0,0.0,0.0,0.0,0.0,0.0,0.0,0.0,0.0,0.0,0.0,0.0,0.0,0.0,0.0,0.0,0.0,0.0,0.0,0.0,0.0,0.0,0.0,0.0,0.0,0.0,0.0,0.0,0.0,0.0,0.0,0.0,0.0,0.0,0.0,0.0,0.0,0.0,0.0,0.0,0.0,0.0,0.0,0.0,0.0,0.0,0.0,0.0,0.0,0.0,0.0,0.0,0.0,0.0,0.0,0.0,0.0,0.0,0.0,0.0,0.0,0.0,0.0,0.0,-0.2147,-0.8035,-1.4218,-1.8813,-2.1003,-2.1489,-2.1455,-2.1455,-2.1441,-2.1441,-2.1441,-2.1441,-2.1441,-2.1441,-2.1441,-2.1441,-2.1441,-2.1408,-2.0995,-2.0467,-2.056,-2.0406,-2.0539,-2.0539,-2.0539,-2.0539,-2.0526,-2.0245,0.0,0.0,0.0,0.0,0.0,0.0,0.0,0.0,0.0,0.0,0.0,0.0,0.0,0.0,0.0,0.0,0.0,0.0,0.0,0.0,0.0,0.0,0.0,0.0,0.0,0.0,0.0,0.0,0.0,0.0,0.0,0.0,0.0,0.0,0.0,0.0,0.0,0.0,0.0,0.0,0.0,0.0,0.0,0.0,0.0,0.0,0.0,0.0,0.0,0.0,0.0,0.0,0.0,0.0,0.0,0.0,0.0,0.0,0.0,0.0,0.0,0.0,0.0,0.0,0.0,0.0,0.0,0.0,0.0,0.0,0.0,0.0,0.0,0.0,0.0,0.0,0.0,0.0,0.0,0.0,0.0,0.0,0.0,0.0,-0.0269,-0.161,-0.2682,-0.778,-1.9948,-2.1277,-2.1509,-2.1509,-2.1475,-2.1441,-2.1441,-2.1441,-2.1441,-2.1441,-2.1441,-2.1441,-2.1441,-2.1466,-2.1055,-2.0467,-2.0453,-2.056,-2.0539,-2.0539,-2.0539,-2.0539,-2.0424,-2.037,0.0,0.0,0.0,0.0,0.0,0.0,0.0,0.0,0.0,0.0,0.0,0.0,0.0,0.0,0.0,0.0,0.0,0.0,0.0,0.0,0.0,0.0,0.0,0.0,0.0,0.0,0.0,0.0,0.0,0.0,0.0,0.0,0.0,0.0,0.0,0.0,0.0,0.0,0.0,0.0,0.0,0.0,0.0,0.0,0.0,0.0,0.0,0.0,0.0,0.0,0.0,0.0,0.0,0.0,0.0,0.0,0.0,0.0,0.0,0.0,0.0,0.0,0.0,0.0,0.0,0.0,0.0,0.0,0.0,0.0,0.0,0.0,0.0,0.0,0.0,0.0,0.0,0.0,0.0,0.0,0.0,0.0,0.0,0.0,0.0,0.0,0.0,-0.2414,-0.8857,-1.3145,-1.7185,-2.1016,-2.1509,-2.1489,-2.1489,-2.1455,-2.1441,-2.1441,-2.1441,-2.1441,-2.1441,-2.1163,-2.1001,-2.0734,-2.0439,-2.0539,-2.0539,-2.0539,-2.0539,-2.0539,-2.0471,-2.0438,0.0,0.0,0.0,0.0,0.0,0.0,0.0,0.0,0.0,0.0,0.0,0.0,0.0,0.0,0.0,0.0,0.0,0.0,0.0,0.0,0.0,0.0,0.0,0.0,0.0,0.0,0.0,0.0,0.0,0.0,0.0,0.0,0.0,0.0,0.0,0.0,0.0,0.0,0.0,0.0,0.0,0.0,0.0,0.0,0.0,0.0,0.0,0.0,0.0,0.0,0.0,0.0,0.0,0.0,0.0,0.0,0.0,0.0,0.0,0.0,0.0,0.0,0.0,0.0,0.0,0.0,0.0,0.0,0.0,0.0,0.0,0.0,0.0,0.0,0.0,0.0,0.0,0.0,0.0,0.0,0.0,0.0,0.0,0.0,0.0,0.0,0.0,0.0,0.0,-0.4825,-1.1266,-1.8873,-1.9644,-2.0158,-2.1236,-2.1455,-2.1441,-2.1441,-2.1441,-2.1421,-2.1387,-2.1109,-2.0926,-2.0633,-2.0627,-2.0485,-2.0485,-2.0526,-2.0539,-2.0539,-2.0539,-2.0526,0.0,0.0,0.0,0.0,0.0,0.0,0.0,0.0,0.0,0.0,0.0,0.0,0.0,0.0,0.0,0.0,0.0,0.0,0.0,0.0,0.0,0.0,0.0,0.0,0.0,0.0,0.0,0.0,0.0,0.0,0.0,0.0,0.0,0.0,0.0,0.0,0.0,0.0,0.0,0.0,0.0,0.0,0.0,0.0,0.0,0.0,0.0,0.0,0.0,0.0,0.0,0.0,0.0,0.0,0.0,0.0,0.0,0.0,0.0,0.0,0.0,0.0,0.0,0.0,0.0,0.0,0.0,0.0,0.0,0.0,0.0,0.0,0.0,0.0,0.0,0.0,0.0,0.0,0.0,0.0,0.0,0.0,0.0,0.0,0.0,0.0,0.0,0.0,0.0,-0.0538,-0.4296,-1.3745,-1.4757,-1.6603,-2.0917,-2.1441,-2.1441,-2.1441,-2.1441,-2.1367,-2.1231,-2.0946,-2.0716,-2.0573,-2.0417,-2.0343,-2.0349,-2.0471,-2.0539,-2.0539,-2.0539,-2.0471,0.0,0.0,0.0,0.0,0.0,0.0,0.0,0.0,0.0,0.0,0.0,0.0,0.0,0.0,0.0,0.0,0.0,0.0,0.0,0.0,0.0,0.0,0.0,0.0,0.0,0.0,0.0,0.0,0.0,0.0,0.0,0.0,0.0,0.0,0.0,0.0,0.0,0.0,0.0,0.0,0.0,0.0,0.0,0.0,0.0,0.0,0.0,0.0,0.0,0.0,0.0,0.0,0.0,0.0,0.0,0.0,0.0,0.0,0.0,0.0,0.0,0.0,0.0,0.0,0.0,0.0,0.0,0.0,0.0,0.0,0.0,0.0,0.0,0.0,0.0,0.0,0.0,0.0,0.0,0.0,0.0,0.0,0.0,0.0,0.0,0.0,0.0,0.0,0.0,0.0,-0.1345,-0.5114,-1.3459,-1.9322,-2.0955,-2.1387,-2.1313,-2.0912,-2.1055,-2.1143,-2.1089,-2.0702,-2.0505,-2.0539,-2.0397,-2.0363,-2.0451,-2.0526,-2.0539,-2.0539,-2.0539,-2.0471,0.0,0.0,0.0,0.0,0.0,0.0,0.0,0.0,0.0,0.0,0.0,0.0,0.0,0.0,0.0,0.0,0.0,0.0,0.0,0.0,0.0,0.0,0.0,0.0,0.0,0.0,0.0,0.0,0.0,0.0,0.0,0.0,0.0,0.0,0.0,0.0,0.0,0.0,0.0,0.0,0.0,0.0,0.0,0.0,0.0,0.0,0.0,0.0,0.0,0.0,0.0,0.0,0.0,0.0,0.0,0.0,0.0,0.0,0.0,0.0,0.0,0.0,0.0,0.0,0.0,0.0,0.0,0.0,0.0,0.0,0.0,0.0,0.0,0.0,0.0,0.0,0.0,0.0,0.0,0.0,0.0,0.0,0.0,0.0,0.0,0.0,0.0,0.0,0.0,0.0,0.0,0.0,-0.8876,-1.583,-1.8546,-2.0315,-2.1015,-2.0716,-2.079,-2.0845,-2.079,-2.0451,-2.0275,-2.0329,-2.0241,-2.0241,-2.0329,-2.0383,-2.0438,-2.0471,-2.0417,-2.0397,0.0,0.0,0.0,0.0,0.0,0.0,0.0,0.0,0.0,0.0,0.0,0.0,0.0,0.0,0.0,0.0,0.0,0.0,0.0,0.0,0.0,0.0,0.0,0.0,0.0,0.0,0.0,0.0,0.0,0.0,0.0,0.0,0.0,0.0,0.0,0.0,0.0,0.0,0.0,0.0,0.0,0.0,0.0,0.0,0.0,0.0,0.0,0.0,0.0,0.0,0.0,0.0,0.0,0.0,0.0,0.0,0.0,0.0,0.0,0.0,0.0,0.0,0.0,0.0,0.0,0.0,0.0,0.0,0.0,0.0,0.0,0.0,0.0,0.0,0.0,0.0,0.0,0.0,0.0,0.0,0.0,0.0,0.0,0.0,0.0,0.0,0.0,0.0,0.0,0.0,0.0,0.0,0.0,-0.3749,-1.337,-1.8245,-2.0825,-2.1014,-2.0702,-2.0471,-2.0329,-2.0173,-2.0031,-1.9875,-1.9875,-1.9875,-1.9875,-2.0031,-2.0173,-2.0329,-2.0173,-2.0261,0.0,0.0,0.0,0.0,0.0,0.0,0.0,0.0,0.0,0.0,0.0,0.0,0.0,0.0,0.0,0.0,0.0,0.0,0.0,0.0,0.0,0.0,0.0,0.0,0.0,0.0,0.0,0.0,0.0,0.0,0.0,0.0,0.0,0.0,0.0,0.0,0.0,0.0,0.0,0.0,0.0,0.0,0.0,0.0,0.0,0.0,0.0,0.0,0.0,0.0,0.0,0.0,0.0,0.0,0.0,0.0,0.0,0.0,0.0,0.0,0.0,0.0,0.0,0.0,0.0,0.0,0.0,0.0,0.0,0.0,0.0,0.0,0.0,0.0,0.0,0.0,0.0,0.0,0.0,0.0,0.0,0.0,0.0,0.0,0.0,0.0,0.0,0.0,0.0,0.0,0.0,0.0,0.0,-0.1066,-0.3908,-1.4215,-2.066,-2.0409,-2.0193,-2.0207,-2.0173,-1.9922,-1.982,-1.9875,-1.9875,-1.9929,-2.0031,-2.0085,-2.0119,-2.0173,-2.0119,-2.0085,0.0,0.0,0.0,0.0,0.0,0.0,0.0,0.0,0.0,0.0,0.0,0.0,0.0,0.0,0.0,0.0,0.0,0.0,0.0,0.0,0.0,0.0,0.0,0.0,0.0,0.0,0.0,0.0,0.0,0.0,0.0,0.0,0.0,0.0,0.0,0.0,0.0,0.0,0.0,0.0,0.0,0.0,0.0,0.0,0.0,0.0,0.0,0.0,0.0,0.0,0.0,0.0,0.0,0.0,0.0,0.0,0.0,0.0,0.0,0.0,0.0,0.0,0.0,0.0,0.0,0.0,0.0,0.0,0.0,0.0,0.0,0.0,0.0,0.0,0.0,0.0,0.0,0.0,0.0,0.0,0.0,0.0,0.0,0.0,0.0,0.0,0.0,0.0,0.0,0.0,0.0,0.0,0.0,0.0,0.0,-0.9937,-1.737,-1.9963,-2.0037,-2.0051,-1.9929,-1.9752,-1.9698,-1.9786,-1.9786,-1.9841,-1.9922,-1.9922,-1.9963,-2.001,-1.9963,-1.9942,0.0,0.0,0.0,0.0,0.0,0.0,0.0,0.0,0.0,0.0,0.0,0.0,0.0,0.0,0.0,0.0,0.0,0.0,0.0,0.0,0.0,0.0,0.0,0.0,0.0,0.0,0.0,0.0,0.0,0.0,0.0,0.0,0.0,0.0,0.0,0.0,0.0,0.0,0.0,0.0,0.0,0.0,0.0,0.0,0.0,0.0,0.0,0.0,0.0,0.0,0.0,0.0,0.0,0.0,0.0,0.0,0.0,0.0,0.0,0.0,0.0,0.0,0.0,0.0,0.0,0.0,0.0,0.0,0.0,0.0,0.0,0.0,0.0,0.0,0.0,0.0,0.0,0.0,0.0,0.0,0.0,0.0,0.0,0.0,0.0,0.0,0.0,0.0,0.0,0.0,0.0,0.0,0.0,0.0,0.0,-0.6021,-1.2687,-1.966,-2.0085,-1.9942,-1.9678,-1.9664,-1.9664,-1.9664,-1.9664,-1.9664,-1.9664,-1.9664,-1.9732,-1.9854,-1.9712,-1.98,0.0,0.0,0.0,0.0,0.0,0.0,0.0,0.0,0.0,0.0,0.0,0.0,0.0,0.0,0.0,0.0,0.0,0.0,0.0,0.0,0.0,0.0,0.0,0.0,0.0,0.0,0.0,0.0,0.0,0.0,0.0,0.0,0.0,0.0,0.0,0.0,0.0,0.0,0.0,0.0,0.0,0.0,0.0,0.0,0.0,0.0,0.0,0.0,0.0,0.0,0.0,0.0,0.0,0.0,0.0,0.0,0.0,0.0,0.0,0.0,0.0,0.0,0.0,0.0,0.0,0.0,0.0,0.0,0.0,0.0,0.0,0.0,0.0,0.0,0.0,0.0,0.0,0.0,0.0,0.0,0.0,0.0,0.0,0.0,0.0,0.0,0.0,0.0,0.0,0.0,0.0,0.0,0.0,0.0,0.0,-0.594,-1.2758,-1.9416,-1.98,-1.9732,-1.9664,-1.9664,-1.9664,-1.9664,-1.9664,-1.9664,-1.9664,-1.9664,-1.9678,-1.9712,-1.9678,-1.9698,0.0,0.0,0.0,0.0,0.0,0.0,0.0,0.0,0.0,0.0,0.0,0.0,0.0,0.0,0.0,0.0,0.0,0.0,0.0,0.0,0.0,0.0,0.0,0.0,0.0,0.0,0.0,0.0,0.0,0.0,0.0,0.0,0.0,0.0,0.0,0.0,0.0,0.0,0.0,0.0,0.0,0.0,0.0,0.0,0.0,0.0,0.0,0.0,0.0,0.0,0.0,0.0,0.0,0.0,0.0,0.0,0.0,0.0,0.0,0.0,0.0,0.0,0.0,0.0,0.0,0.0,0.0,0.0,0.0,0.0,0.0,0.0,0.0,0.0,0.0,0.0,0.0,0.0,0.0,0.0,0.0,0.0,0.0,0.0,0.0,0.0,0.0,0.0,0.0,0.0,0.0,0.0,0.0,0.0,0.0,-0.6111,-1.2605,-1.933,-1.9712,-1.9664,-1.9664,-1.9664,-1.9664,-1.9664,-1.9664,-1.9664,-1.9664,-1.9664,-1.9664,-1.9664,-1.9664,-1.9664,0.0,0.0,0.0,0.0,0.0,0.0,0.0,0.0,0.0,0.0,0.0,0.0,0.0,0.0,0.0,0.0,0.0,0.0,0.0,0.0,0.0,0.0,0.0,0.0,0.0,0.0,0.0,0.0,0.0,0.0,0.0,0.0,0.0,0.0,0.0,0.0,0.0,0.0,0.0,0.0,0.0,0.0,0.0,0.0,0.0,0.0,0.0,0.0,0.0,0.0,0.0,0.0,0.0,0.0,0.0,0.0,0.0,0.0,0.0,0.0,0.0,0.0,0.0,0.0,0.0,0.0,0.0,0.0,0.0,0.0,0.0,0.0,0.0,0.0,0.0,0.0,0.0,0.0,0.0,0.0,0.0,0.0,0.0,0.0,0.0,0.0,0.0,0.0,0.0,0.0,0.0,0.0,0.0,0.0,0.0,-0.6037,-1.2507,-1.931,-1.9712,-1.9664,-1.9664,-1.9664,-1.9664,-1.9664,-1.9664,-1.9664,-1.9664,-1.9664,-1.9664,-1.9664,-1.9664,-1.9664,0.0,0.0,0.0,0.0,0.0,0.0,0.0,0.0,0.0,0.0,0.0,0.0,0.0,0.0,0.0,0.0,0.0,0.0,0.0,0.0,0.0,0.0,0.0,0.0,0.0,0.0,0.0,0.0,0.0,0.0,0.0,0.0,0.0,0.0,0.0,0.0,0.0,0.0,0.0,0.0,0.0,0.0,0.0,0.0,0.0,0.0,0.0,0.0,0.0,0.0,0.0,0.0,0.0,0.0,0.0,0.0,0.0,0.0,0.0,0.0,0.0,0.0,0.0,0.0,0.0,0.0,0.0,0.0,0.0,0.0,0.0,0.0,0.0,0.0,0.0,0.0,0.0,0.0,0.0,0.0,0.0,0.0,0.0,0.0,0.0,0.0,0.0,0.0,0.0,0.0,0.0,0.0,0.0,0.0,0.0,-0.6037,-1.2507,-1.931,-1.9712,-1.9664,-1.9664,-1.9664,-1.9664,-1.9664,-1.9664,-1.9664,-1.9664,-1.9664,-1.9664,-1.9664,-1.9664,-1.9664,0.0,0.0,0.0,0.0,0.0,0.0,0.0,0.0,0.0,0.0,0.0,0.0,0.0,0.0,0.0,0.0,0.0,0.0,0.0,0.0,0.0,0.0,0.0,0.0,0.0,0.0,0.0,0.0,0.0,0.0,0.0,0.0,0.0,0.0,0.0,0.0,0.0,0.0,0.0,0.0,0.0,0.0,0.0,0.0,0.0,0.0,0.0,0.0,0.0,0.0,0.0,0.0,0.0,0.0,0.0,0.0,0.0,0.0,0.0,0.0,0.0,0.0,0.0,0.0,0.0,0.0,0.0,0.0,0.0,0.0,0.0,0.0,0.0,0.0,0.0,0.0,0.0,0.0,0.0,0.0,0.0,0.0,0.0,0.0,0.0,0.0,0.0,0.0,0.0,0.0,0.0,0.0,0.0,0.0,0.0,-0.2734,-0.8668,-1.9058,-1.9732,-1.9698,-1.9664,-1.9664,-1.9664,-1.9664,-1.9664,-1.9664,-1.9664,-1.9664,-1.9664,-1.9664,-1.9664,-1.9664,0.0,0.0,0.0,0.0,0.0,0.0,0.0,0.0,0.0,0.0,0.0,0.0,0.0,0.0,0.0,0.0,0.0,0.0,0.0,0.0,0.0,0.0,0.0,0.0,0.0,0.0,0.0,0.0,0.0,0.0,0.0,0.0,0.0,0.0,0.0,0.0,0.0,0.0,0.0,0.0,0.0,0.0,0.0,0.0,0.0,0.0,0.0,0.0,0.0,0.0,0.0,0.0,0.0,0.0,0.0,0.0,0.0,0.0,0.0,0.0,0.0,0.0,0.0,0.0,0.0,0.0,0.0,0.0,0.0,0.0,0.0,0.0,0.0,0.0,0.0,0.0,0.0,0.0,0.0,0.0,0.0,0.0,0.0,0.0,0.0,0.0,0.0,0.0,0.0,0.0,0.0,0.0,0.0,0.0,0.0,0.0,-0.4916,-1.6534,-1.8742,-1.9712,-1.9664,-1.9664,-1.9664,-1.9664,-1.9664,-1.9664,-1.9664,-1.9664,-1.9664,-1.9664,-1.9664,-1.9664,0.0,0.0,0.0,0.0,0.0,0.0,0.0,0.0,0.0,0.0,0.0,0.0,0.0,0.0,0.0,0.0,0.0,0.0,0.0,0.0,0.0,0.0,0.0,0.0,0.0,0.0,0.0,0.0,0.0,0.0,0.0,0.0,0.0,0.0,0.0,0.0,0.0,0.0,0.0,0.0,0.0,0.0,0.0,0.0,0.0,0.0,0.0,0.0,0.0,0.0,0.0,0.0,0.0,0.0,0.0,0.0,0.0,0.0,0.0,0.0,0.0,0.0,0.0,0.0,0.0,0.0,0.0,0.0,0.0,0.0,0.0,0.0,0.0,0.0,0.0,0.0,0.0,0.0,0.0,0.0,0.0,0.0,0.0,0.0,0.0,0.0,0.0,0.0,0.0,0.0,0.0,0.0,0.0,0.0,0.0,0.0,-0.2949,-0.9825,-1.6238,-1.9712,-1.9664,-1.9664,-1.9664,-1.9664,-1.9664,-1.9664,-1.9664,-1.9664,-1.9664,-1.9664,-1.9664,-1.9664,0.0,0.0,0.0,0.0,0.0,0.0,0.0,0.0,0.0,0.0,0.0,0.0,0.0,0.0,0.0,0.0,0.0,0.0,0.0,0.0,0.0,0.0,0.0,0.0,0.0,0.0,0.0,0.0,0.0,0.0,0.0,0.0,0.0,0.0,0.0,0.0,0.0,0.0,0.0,0.0,0.0,0.0,0.0,0.0,0.0,0.0,0.0,0.0,0.0,0.0,0.0,0.0,0.0,0.0,0.0,0.0,0.0,0.0,0.0,0.0,0.0,0.0,0.0,0.0,0.0,0.0,0.0,0.0,0.0,0.0,0.0,0.0,0.0,0.0,0.0,0.0,0.0,0.0,0.0,0.0,0.0,0.0,0.0,0.0,0.0,0.0,0.0,0.0,0.0,0.0,0.0,0.0,0.0,0.0,0.0,0.0,-0.2708,-0.9332,-1.6016,-1.9746,-1.9664,-1.9664,-1.9664,-1.9664,-1.9664,-1.9664,-1.9664,-1.9664,-1.9664,-1.9664,-1.9664,-1.9664,0.0,0.0,0.0,0.0,0.0,0.0,0.0,0.0,0.0,0.0,0.0,0.0,0.0,0.0,0.0,0.0,0.0,0.0,0.0,0.0,0.0,0.0,0.0,0.0,0.0,0.0,0.0,0.0,0.0,0.0,0.0,0.0,0.0,0.0,0.0,0.0,0.0,0.0,0.0,0.0,0.0,0.0,0.0,0.0,0.0,0.0,0.0,0.0,0.0,0.0,0.0,0.0,0.0,0.0,0.0,0.0,0.0,0.0,0.0,0.0,0.0,0.0,0.0,0.0,0.0,0.0,0.0,0.0,0.0,0.0,0.0,0.0,0.0,0.0,0.0,0.0,0.0,0.0,0.0,0.0,0.0,0.0,0.0,0.0,0.0,0.0,0.0,0.0,0.0,0.0,0.0,0.0,0.0,0.0,0.0,0.0,-0.2717,-0.9406,-1.6077,-1.9766,-1.9664,-1.9664,-1.9664,-1.9664,-1.9664,-1.9664,-1.9664,-1.9664,-1.9664,-1.9664,-1.9664,-1.9624,0.0,0.0,0.0,0.0,0.0,0.0,0.0,0.0,0.0,0.0,0.0,0.0,0.0,0.0,0.0,0.0,0.0,0.0,0.0,0.0,0.0,0.0,0.0,0.0,0.0,0.0,0.0,0.0,0.0,0.0,0.0,0.0,0.0,0.0,0.0,0.0,0.0,0.0,0.0,0.0,0.0,0.0,0.0,0.0,0.0,0.0,0.0,0.0,0.0,0.0,0.0,0.0,0.0,0.0,0.0,0.0,0.0,0.0,0.0,0.0,0.0,0.0,0.0,0.0,0.0,0.0,0.0,0.0,0.0,0.0,0.0,0.0,0.0,0.0,0.0,0.0,0.0,0.0,0.0,0.0,0.0,0.0,0.0,0.0,0.0,0.0,0.0,0.0,0.0,0.0,0.0,0.0,0.0,0.0,0.0,0.0,-0.273,-0.9289,-1.5912,-1.9766,-1.9664,-1.9664,-1.9664,-1.9664,-1.9664,-1.9664,-1.9664,-1.9664,-1.9664,-1.9664,-1.9664,-1.9576,0.0,0.0,0.0,0.0,0.0,0.0,0.0,0.0,0.0,0.0,0.0,0.0,0.0,0.0,0.0,0.0,0.0,0.0,0.0,0.0,0.0,0.0,0.0,0.0,0.0,0.0,0.0,0.0,0.0,0.0,0.0,0.0,0.0,0.0,0.0,0.0,0.0,0.0,0.0,0.0,0.0,0.0,0.0,0.0,0.0,0.0,0.0,0.0,0.0,0.0,0.0,0.0,0.0,0.0,0.0,0.0,0.0,0.0,0.0,0.0,0.0,0.0,0.0,0.0,0.0,0.0,0.0,0.0,0.0,0.0,0.0,0.0,0.0,0.0,0.0,0.0,0.0,0.0,0.0,0.0,0.0,0.0,0.0,0.0,0.0,0.0,0.0,0.0,0.0,0.0,0.0,0.0,0.0,0.0,0.0,0.0,-0.2715,-0.939,-1.6077,-1.9766,-1.9664,-1.9664,-1.9664,-1.9664,-1.9664,-1.9664,-1.9664,-1.9664,-1.9664,-1.9664,-1.9556,-1.9468,0.0,0.0,0.0,0.0,0.0,0.0,0.0,0.0,0.0,0.0,0.0,0.0,0.0,0.0,0.0,0.0,0.0,0.0,0.0,0.0,0.0,0.0,0.0,0.0,0.0,0.0,0.0,0.0,0.0,0.0,0.0,0.0,0.0,0.0,0.0,0.0,0.0,0.0,0.0,0.0,0.0,0.0,0.0,0.0,0.0,0.0,0.0,0.0,0.0,0.0,0.0,0.0,0.0,0.0,0.0,0.0,0.0,0.0,0.0,0.0,0.0,0.0,0.0,0.0,0.0,0.0,0.0,0.0,0.0,0.0,0.0,0.0,0.0,0.0,0.0,0.0,0.0,0.0,0.0,0.0,0.0,0.0,0.0,0.0,0.0,0.0,0.0,0.0,0.0,0.0,0.0,0.0,0.0,0.0,0.0,0.0,-0.1731,-0.5452,-1.4596,-1.9766,-1.9698,-1.9678,-1.9664,-1.9664,-1.9664,-1.9664,-1.9664,-1.9664,-1.9664,-1.9664,-1.9569,-1.9468,0.0,0.0,0.0,0.0,0.0,0.0,0.0,0.0,0.0,0.0,0.0,0.0,0.0,0.0,0.0,0.0,0.0,0.0,0.0,0.0,0.0,0.0,0.0,0.0,0.0,0.0,0.0,0.0,0.0,0.0,0.0,0.0,0.0,0.0,0.0,0.0,0.0,0.0,0.0,0.0,0.0,0.0,0.0,0.0,0.0,0.0,0.0,0.0,0.0,0.0,0.0,0.0,0.0,0.0,0.0,0.0,0.0,0.0,0.0,0.0,0.0,0.0,0.0,0.0,0.0,0.0,0.0,0.0,0.0,0.0,0.0,0.0,0.0,0.0,0.0,0.0,0.0,0.0,0.0,0.0,0.0,0.0,0.0,0.0,0.0,0.0,0.0,0.0,0.0,0.0,0.0,0.0,0.0,0.0,0.0,0.0,-0.0248,-0.1003,-1.2158,-1.9025,-1.9732,-1.9678,-1.9664,-1.9664,-1.9664,-1.9664,-1.9664,-1.9664,-1.9664,-1.9664,-1.9624,-1.9468,0.0,0.0,0.0,0.0,0.0,0.0,0.0,0.0,0.0,0.0,0.0,0.0,0.0,0.0,0.0,0.0,0.0,0.0,0.0,0.0,0.0,0.0,0.0,0.0,0.0,0.0,0.0,0.0,0.0,0.0,0.0,0.0,0.0,0.0,0.0,0.0,0.0,0.0,0.0,0.0,0.0,0.0,0.0,0.0,0.0,0.0,0.0,0.0,0.0,0.0,0.0,0.0,0.0,0.0,0.0,0.0,0.0,0.0,0.0,0.0,0.0,0.0,0.0,0.0,0.0,0.0,0.0,0.0,0.0,0.0,0.0,0.0,0.0,0.0,0.0,0.0,0.0,0.0,0.0,0.0,0.0,0.0,0.0,0.0,0.0,0.0,0.0,0.0,0.0,0.0,0.0,0.0,0.0,0.0,0.0,0.0,-0.2221,-0.7648,-1.0337,-1.4012,-1.9428,-1.9664,-1.9664,-1.9664,-1.9664,-1.9664,-1.9664,-1.9664,-1.9664,-1.9664,-1.9413,-1.9257,0.0,0.0,0.0,0.0,0.0,0.0,0.0,0.0,0.0,0.0,0.0,0.0,0.0,0.0,0.0,0.0,0.0,0.0,0.0,0.0,0.0,0.0,0.0,0.0,0.0,0.0,0.0,0.0,0.0,0.0,0.0,0.0,0.0,0.0,0.0,0.0,0.0,0.0,0.0,0.0,0.0,0.0,0.0,0.0,0.0,0.0,0.0,0.0,0.0,0.0,0.0,0.0,0.0,0.0,0.0,0.0,0.0,0.0,0.0,0.0,0.0,0.0,0.0,0.0,0.0,0.0,0.0,0.0,0.0,0.0,0.0,0.0,0.0,0.0,0.0,0.0,0.0,0.0,0.0,0.0,0.0,0.0,0.0,0.0,0.0,0.0,0.0,0.0,0.0,0.0,0.0,0.0,0.0,0.0,0.0,0.0,-0.4193,-1.4065,-1.4796,-1.6255,-1.9448,-1.9678,-1.9664,-1.9664,-1.9664,-1.9664,-1.9664,-1.9664,-1.9664,-1.9664,-1.9434,-1.9271,0.0,0.0,0.0,0.0,0.0,0.0,0.0,0.0,0.0,0.0,0.0,0.0,0.0,0.0,0.0,0.0,0.0,0.0,0.0,0.0,0.0,0.0,0.0,0.0,0.0,0.0,0.0,0.0,0.0,0.0,0.0,0.0,0.0,0.0,0.0,0.0,0.0,0.0,0.0,0.0,0.0,0.0,0.0,0.0,0.0,0.0,0.0,0.0,0.0,0.0,0.0,0.0,0.0,0.0,0.0,0.0,0.0,0.0,0.0,0.0,0.0,0.0,0.0,0.0,0.0,0.0,0.0,0.0,0.0,0.0,0.0,0.0,0.0,0.0,0.0,0.0,0.0,0.0,0.0,0.0,0.0,0.0,0.0,0.0,0.0,0.0,0.0,0.0,0.0,0.0,0.0,0.0,0.0,0.0,0.0,-0.1235,-0.6416,-1.7082,-1.9058,-1.978,-1.9712,-1.9678,-1.9664,-1.9664,-1.9664,-1.9664,-1.9664,-1.9664,-1.9644,-1.961,-1.9468,-1.9305,0.0,0.0,0.0,0.0,0.0,0.0,0.0,0.0,0.0,0.0,0.0,0.0,0.0,0.0,0.0,0.0,0.0,0.0,0.0,0.0,0.0,0.0,0.0,0.0,0.0,0.0,0.0,0.0,0.0,0.0,0.0,0.0,0.0,0.0,0.0,0.0,0.0,0.0,0.0,0.0,0.0,0.0,0.0,0.0,0.0,0.0,0.0,0.0,0.0,0.0,0.0,0.0,0.0,0.0,0.0,0.0,0.0,0.0,0.0,0.0,0.0,0.0,0.0,0.0,0.0,0.0,0.0,0.0,0.0,0.0,0.0,0.0,0.0,0.0,0.0,0.0,0.0,0.0,0.0,0.0,0.0,0.0,0.0,0.0,0.0,0.0,0.0,0.0,0.0,0.0,0.0,0.0,0.0,0.0,0.0,-0.5437,-0.939,-1.0824,-1.6534,-1.9766,-1.9678,-1.9664,-1.9664,-1.9664,-1.9664,-1.9664,-1.9664,-1.9664,-1.959,-1.9447,-1.9305,-1.9149,0.0,0.0,0.0,0.0,0.0,0.0,0.0,0.0,0.0,0.0,0.0,0.0,0.0,0.0,0.0,0.0,0.0,0.0,0.0,0.0,0.0,0.0,0.0,0.0,0.0,0.0,0.0,0.0,0.0,0.0,0.0,0.0,0.0,0.0,0.0,0.0,0.0,0.0,0.0,0.0,0.0,0.0,0.0,0.0,0.0,0.0,0.0,0.0,0.0,0.0,0.0,0.0,0.0,0.0,0.0,0.0,0.0,0.0,0.0,0.0,0.0,0.0,0.0,0.0,0.0,0.0,0.0,0.0,0.0,0.0,0.0,0.0,0.0,0.0,0.0,0.0,0.0,0.0,0.0,0.0,0.0,0.0,0.0,0.0,0.0,0.0,0.0,0.0,0.0,0.0,0.0,0.0,0.0,0.0,0.0,-0.5933,-0.9876,-0.9825,-1.5988,-1.9698,-1.9664,-1.9664,-1.9664,-1.9664,-1.9664,-1.9664,-1.9664,-1.9569,-1.9447,-1.9291,-1.9237,-1.9128,0.3625,0.0,0.0,0.0,0.0,0.0,0.0,0.0,0.0,0.0,0.0,0.0,0.0,0.0,0.0,0.0,0.0,0.0,0.0,0.0,0.0,0.0,0.0,0.0,0.0,0.0,0.0,0.0,0.0,0.0,0.0,0.0,0.0,0.0,0.0,0.0,0.0,0.0,0.0,0.0,0.0,0.0,0.0,0.0,0.0,0.0,0.0,0.0,0.0,0.0,0.0,0.0,0.0,0.0,0.0,0.0,0.0,0.0,0.0,0.0,0.0,0.0,0.0,0.0,0.0,0.0,0.0,0.0,0.0,0.0,0.0,0.0,0.0,0.0,0.0,0.0,0.0,0.0,0.0,0.0,0.0,0.0,0.0,0.0,0.0,0.0,0.0,0.0,0.0,0.0,0.0,0.0,0.0,0.0,0.0,-0.5933,-1.0622,-1.2299,-1.6959,-1.9664,-1.9664,-1.9664,-1.9664,-1.9664,-1.9624,-1.959,-1.959,-1.9447,-1.9291,-1.9149,-1.9149,-1.9061,0.0,0.0,0.0,0.0,0.0,0.0,0.0,0.0,0.0,0.0,0.0,0.0,0.0,0.0,0.0,0.0,0.0,0.0,0.0,0.0,0.0,0.0,0.0,0.0,0.0,0.0,0.0,0.0,0.0,0.0,0.0,0.0,0.0,0.0,0.0,0.0,0.0,0.0,0.0,0.0,0.0,0.0,0.0,0.0,0.0,0.0,0.0,0.0,0.0,0.0,0.0,0.0,0.0,0.0,0.0,0.0,0.0,0.0,0.0,0.0,0.0,0.0,0.0,0.0,0.0,0.0,0.0,0.0,0.0,0.0,0.0,0.0,0.0,0.0,0.0,0.0,0.0,0.0,0.0,0.0,0.0,0.0,0.0,0.0,0.0,0.0,0.0,0.0,0.0,0.0,0.0,0.0,0.0,0.0,0.0,-0.5933,-1.2613,-1.9045,-1.9468,-1.9664,-1.9664,-1.9664,-1.9664,-1.9664,-1.9522,-1.9434,-1.9434,-1.9291,-1.9128,-1.8993,-1.8993,-1.8918,0.0,0.0,1.3052,1.3644,0.0,0.0,0.0,0.0,0.0,0.0,0.0,0.0,0.0,0.0,0.0,0.0,0.0,0.0,0.0,0.0,0.0,0.0,0.0,0.0,0.0,0.0,0.0,0.0,0.0,0.0,0.0,0.0,0.0,0.0,0.0,0.0,0.0,0.0,0.0,0.0,0.0,0.0,0.0,0.0,0.0,0.0,0.0,0.0,0.0,0.0,0.0,0.0,0.0,0.0,0.0,0.0,0.0,0.0,0.0,0.0,0.0,0.0,0.0,0.0,0.0,0.0,0.0,0.0,0.0,0.0,0.0,0.0,0.0,0.0,0.0,0.0,0.0,0.0,0.0,0.0,0.0,0.0,0.0,0.0,0.0,0.0,0.0,0.0,0.0,0.0,0.0,0.0,0.0,-0.3458,-1.2396,-1.1111,-1.2561,-1.9263,-1.9698,-1.9664,-1.9664,-1.9664,-1.961,-1.9522,-1.9468,-1.9379,-1.9271,-1.9128,-1.904,-1.8993,-1.8884,-1.8816,1.7925,1.7538,0.0,0.0,1.2925,0.0,0.5981,0.0,0.0,0.0,0.0,0.0,0.0,0.0,0.0,0.0,0.0,0.0,0.0,0.0,0.0,0.0,0.0,0.0,0.0,0.0,0.0,0.0,0.0,0.0,0.0,0.0,0.0,0.0,0.0,0.0,0.0,0.0,0.0,0.0,0.0,0.0,0.0,0.0,0.0,0.0,0.0,0.0,0.0,0.0,0.0,0.0,0.0,0.0,0.0,0.0,0.0,0.0,0.0,0.0,0.0,0.0,0.0,0.0,0.0,0.0,0.0,0.0,0.0,0.0,0.0,0.0,0.0,0.0,0.0,0.0,0.0,0.0,0.0,0.0,0.0,0.0,0.0,0.0,0.0,0.0,0.0,0.0,0.0,0.0,-0.1729,-0.6429,-0.6918,-0.939,-1.5617,-1.4301,-1.5255,-1.9481,-1.9678,-1.9664,-1.9664,-1.9664,-1.959,-1.9434,-1.9379,-1.9271,-1.9128,-1.8972,-1.8905,-1.8905,-1.8816,-1.8762]}]]